M I D A S
Marine Information and Data Acquisition System
Tripno 641 of the Zeeleeuw from 2004-02-03 07:40:56 to 2004-02-03 15:59:30
Back to CruiseResearch ActivitiesStationsMapUnderway DataData graphs

EquipmentUnitsComment
TimeDGPSUTC
LatitudeDGPSDM.mWGS84
LongitudeDGPSDM.mWGS84
TemperatureSBE03/SBE38deg celciusITS90
ConductivitySBE21S/mITS90
SalinitySBE21 Practical Salinity Units
ChlorophylAChelsea fluorimeterg/lCalibrated in Aceton
Missing or incorrect values are displayed as -999
Sea surface data collected by the RV Zeeleeuw from 2004-02-03 07:40:56 to 2004-02-03 15:59:30
                                                                                    Next 1000 lines
Time Latitude Longitude Temperature Conductivity Salinity ChlorophylA
2004-02-03 07:41:04 51°13.593 2°56.107 14.515072 0.004872 0.029839 -0.646411
2004-02-03 07:41:08 51°13.592 2°56.108 14.521513 0.004872 0.029839 -0.646411
2004-02-03 07:41:14 51°13.592 2°56.108 14.50679 0.004872 0.029838 -0.646411
2004-02-03 07:41:20 51°13.592 2°56.108 14.517657 0.004872 0.029839 -0.612702
2004-02-03 07:41:24 51°13.592 2°56.108 14.512355 0.004872 0.029838 -0.646411
2004-02-03 07:41:30 51°13.592 2°56.108 14.532246 0.004872 0.029838 -0.680121
2004-02-03 07:41:34 51°13.592 2°56.108 14.532246 0.004872 0.029838 -0.680121
2004-02-03 07:41:39 51°13.592 2°56.108 14.510734 0.004872 0.029838 -0.646411
2004-02-03 07:41:44 51°13.592 2°56.107 14.514196 0.004872 0.029838 -0.646411
2004-02-03 07:41:48 51°13.592 2°56.108 14.521162 0.004872 0.029838 -0.646411
2004-02-03 07:41:54 51°13.592 2°56.107 14.514108 0.004872 0.029838 -0.612702
2004-02-03 07:41:59 51°13.592 2°56.107 14.515905 0.004872 0.029838 -0.612702
2004-02-03 07:42:04 51°13.591 2°56.107 14.515905 0.004872 0.029838 -0.612702
2004-02-03 07:42:08 51°13.591 2°56.107 14.502364 0.004872 0.029838 -0.646411
2004-02-03 07:42:14 51°13.592 2°56.106 14.410663 0.004872 0.029838 -0.646411
2004-02-03 07:42:19 51°13.592 2°56.104 14.490486 0.004872 0.029838 -0.646411
2004-02-03 07:42:24 51°13.592 2°56.101 14.481062 0.004872 0.029838 -0.646411
2004-02-03 07:42:30 51°13.593 2°56.097 14.516737 0.004872 0.029838 -0.646411
2004-02-03 07:42:34 51°13.594 2°56.094 14.516737 0.004872 0.029838 -0.646411
2004-02-03 07:42:40 51°13.595 2°56.089 14.392449 0.004872 0.029838 -0.646411
2004-02-03 07:42:45 51°13.596 2°56.085 14.478957 0.004872 0.029838 -0.612702
2004-02-03 07:42:50 51°13.597 2°56.08 14.466549 0.004872 0.029838 -0.646411
2004-02-03 07:42:55 51°13.599 2°56.075 14.499647 0.004872 0.029838 -0.646411
2004-02-03 07:43:00 51°13.601 2°56.07 14.395917 0.004872 0.029838 -0.612702
2004-02-03 07:43:04 51°13.602 2°56.065 14.395917 0.004872 0.029838 -0.612702
2004-02-03 07:43:10 51°13.604 2°56.058 14.442955 0.004872 0.029838 -0.646411
2004-02-03 07:43:15 51°13.606 2°56.052 14.460717 0.004872 0.029838 -0.646411
2004-02-03 07:43:20 51°13.608 2°56.046 14.465059 0.004872 0.029838 -0.646411
2004-02-03 07:43:24 51°13.61 2°56.04 14.404475 0.004872 0.029838 -0.612702
2004-02-03 07:43:30 51°13.612 2°56.032 14.471373 0.004872 0.029838 -0.646411
2004-02-03 07:43:35 51°13.614 2°56.025 14.471373 0.004872 0.029838 -0.646411
2004-02-03 07:43:40 51°13.617 2°56.017 14.479703 0.004872 0.029838 -0.646411
2004-02-03 07:43:45 51°13.619 2°56.01 14.476239 0.004872 0.029837 -0.646411
2004-02-03 07:43:50 51°13.621 2°56.002 14.489391 0.004872 0.029837 -0.612702
2004-02-03 07:43:55 51°13.623 2°55.994 14.486892 0.004872 0.029837 -0.612702
2004-02-03 07:44:00 51°13.626 2°55.986 14.497806 0.004872 0.029837 -0.612702
2004-02-03 07:44:04 51°13.627 2°55.98 14.497806 0.004872 0.029837 -0.612702
2004-02-03 07:44:10 51°13.63 2°55.97 14.48093 0.004872 0.029837 -0.646411
2004-02-03 07:44:15 51°13.632 2°55.962 14.498551 0.004872 0.029837 -0.646411
2004-02-03 07:44:20 51°13.635 2°55.954 14.51643 0.004872 0.029837 -0.612702
2004-02-03 07:44:24 51°13.637 2°55.948 14.489434 0.004872 0.029837 -0.612702
2004-02-03 07:44:30 51°13.64 2°55.938 14.486234 0.004872 0.029837 -0.612702
2004-02-03 07:44:35 51°13.642 2°55.929 14.486234 0.004872 0.029837 -0.612702
2004-02-03 07:44:40 51°13.645 2°55.92 14.504117 0.004872 0.029837 -0.612702
2004-02-03 07:44:45 51°13.648 2°55.911 14.504161 0.004872 0.029837 -0.612702
2004-02-03 07:44:50 51°13.651 2°55.901 14.492459 0.004872 0.029837 -0.612702
2004-02-03 07:44:55 51°13.653 2°55.892 14.506571 0.004872 0.029837 -0.612702
2004-02-03 07:45:00 51°13.655 2°55.882 14.566187 0.004872 0.029837 -0.612702
2004-02-03 07:45:04 51°13.657 2°55.875 14.566187 0.004872 0.029837 -0.612702
2004-02-03 07:45:10 51°13.66 2°55.863 14.527953 0.004872 0.029837 -0.612702
2004-02-03 07:45:15 51°13.662 2°55.854 14.612494 0.004872 0.029837 -0.646411
2004-02-03 07:45:20 51°13.663 2°55.844 14.525062 0.004872 0.029837 -0.612702
2004-02-03 07:45:24 51°13.665 2°55.837 14.517307 0.004872 0.029837 -0.612702
2004-02-03 07:45:30 51°13.667 2°55.826 14.4982 0.004872 0.029837 -0.646411
2004-02-03 07:45:34 51°13.668 2°55.818 14.4982 0.004872 0.029837 -0.646411
2004-02-03 07:45:39 51°13.669 2°55.809 14.497675 0.004872 0.029837 -0.646411
2004-02-03 07:45:44 51°13.67 2°55.8 14.556554 0.004872 0.029837 -0.612702
2004-02-03 07:45:48 51°13.67 2°55.793 14.54289 0.004872 0.029837 -0.646411
2004-02-03 07:45:54 51°13.672 2°55.785 14.526376 0.004872 0.029837 -0.612702
2004-02-03 07:45:59 51°13.673 2°55.779 14.592583 0.004872 0.029837 -0.612702
2004-02-03 07:46:04 51°13.673 2°55.775 14.592583 0.004872 0.029837 -0.612702
2004-02-03 07:46:10 51°13.674 2°55.772 14.660825 0.004872 0.029837 -0.612702
2004-02-03 07:46:14 51°13.675 2°55.772 14.643465 0.004872 0.029837 -0.612702
2004-02-03 07:46:18 51°13.675 2°55.772 14.77157 0.004872 0.029837 -0.646411
2004-02-03 07:46:24 51°13.677 2°55.773 14.782788 0.004872 0.029837 -0.646411
2004-02-03 07:46:29 51°13.678 2°55.776 14.895948 0.004872 0.029836 -0.646411
2004-02-03 07:46:34 51°13.681 2°55.779 14.895948 0.004872 0.029836 -0.646411
2004-02-03 07:46:38 51°13.684 2°55.782 14.946515 0.004872 0.029836 -0.646411
2004-02-03 07:46:44 51°13.689 2°55.785 15.024969 0.004872 0.029836 -0.612702
2004-02-03 07:46:48 51°13.693 2°55.786 15.014009 0.004872 0.029836 -0.612702
2004-02-03 07:46:54 51°13.701 2°55.786 14.954917 0.004872 0.029836 -0.612702
2004-02-03 07:46:59 51°13.707 2°55.784 14.867926 0.004872 0.029836 -0.612702
2004-02-03 07:47:04 51°13.714 2°55.78 14.867926 0.004872 0.029836 -0.612702
2004-02-03 07:47:10 51°13.722 2°55.773 14.850314 0.004872 0.029837 -0.646411
2004-02-03 07:47:14 51°13.727 2°55.767 14.844646 0.004872 0.029837 -0.646411
2004-02-03 07:47:20 51°13.733 2°55.759 14.721484 0.004872 0.029836 -0.646411
2004-02-03 07:47:24 51°13.737 2°55.753 14.726377 0.004872 0.029837 -0.646411
2004-02-03 07:47:28 51°13.741 2°55.747 14.684256 0.004872 0.029836 -0.612702
2004-02-03 07:47:34 51°13.747 2°55.737 14.684256 0.004872 0.029836 -0.612702
2004-02-03 07:47:39 51°13.752 2°55.73 14.621288 0.004872 0.029837 -0.612702
2004-02-03 07:47:44 51°13.757 2°55.721 14.65361 0.004872 0.029836 -0.646411
2004-02-03 07:47:50 51°13.763 2°55.71 14.630343 0.004872 0.029836 -0.612702
2004-02-03 07:47:54 51°13.768 2°55.703 14.621463 0.004872 0.029836 -0.612702
2004-02-03 07:47:59 51°13.774 2°55.694 14.641322 0.004872 0.029836 -0.612702
2004-02-03 07:48:04 51°13.781 2°55.685 14.641322 0.004872 0.029836 -0.612702
2004-02-03 07:48:09 51°13.787 2°55.675 14.577438 0.004872 0.029836 -0.612702
2004-02-03 07:48:14 51°13.795 2°55.666 14.56356 0.004872 0.029836 -0.646411
2004-02-03 07:48:19 51°13.802 2°55.657 14.561633 0.004872 0.029836 -0.646411
2004-02-03 07:48:24 51°13.81 2°55.648 14.546394 0.004872 0.029836 -0.680121
2004-02-03 07:48:30 51°13.82 2°55.638 14.506177 0.004872 0.029836 -0.646411
2004-02-03 07:48:34 51°13.827 2°55.632 14.506177 0.004872 0.029836 -0.646411
2004-02-03 07:48:39 51°13.836 2°55.625 14.570959 0.004872 0.029836 -0.612702
2004-02-03 07:48:44 51°13.845 2°55.618 14.590351 0.004872 0.029836 -0.612702
2004-02-03 07:48:48 51°13.853 2°55.612 14.614332 0.004872 0.029836 -0.612702
2004-02-03 07:48:54 51°13.864 2°55.603 14.617394 0.004872 0.029836 -0.646411
2004-02-03 07:48:59 51°13.874 2°55.596 14.60173 0.004872 0.029836 -0.646411
2004-02-03 07:49:04 51°13.884 2°55.589 14.60173 0.004872 0.029836 -0.646411
2004-02-03 07:49:08 51°13.892 2°55.583 14.65995 0.004872 0.029836 -0.646411
2004-02-03 07:49:14 51°13.904 2°55.574 14.598142 0.004872 0.029836 -0.612702
2004-02-03 07:49:19 51°13.914 2°55.567 14.589651 0.004872 0.029836 -0.680121
2004-02-03 07:49:24 51°13.924 2°55.559 14.569077 0.004872 0.029836 -0.612702
2004-02-03 07:49:28 51°13.932 2°55.553 14.553839 0.004872 0.029836 -0.612702
2004-02-03 07:49:34 51°13.944 2°55.545 14.553839 0.004872 0.029836 -0.612702
2004-02-03 07:49:39 51°13.954 2°55.537 14.589257 0.004872 0.029836 -0.612702
2004-02-03 07:49:44 51°13.965 2°55.53 14.565399 0.004872 0.029836 -0.646411
2004-02-03 07:49:49 51°13.975 2°55.522 14.623082 0.004872 0.029836 -0.612702
2004-02-03 07:49:54 51°13.985 2°55.515 14.641715 0.004872 0.029836 -0.646411
2004-02-03 07:49:59 51°13.995 2°55.507 14.63253 0.004872 0.029836 -0.646411
2004-02-03 07:50:04 51°14.006 2°55.5 14.63253 0.004872 0.029836 -0.646411
2004-02-03 07:50:09 51°14.016 2°55.493 14.597266 0.004872 0.029836 -0.680121
2004-02-03 07:50:14 51°14.027 2°55.486 14.617394 0.004872 0.029836 -0.646411
2004-02-03 07:50:19 51°14.037 2°55.479 14.647357 0.004872 0.029836 -0.646411
2004-02-03 07:50:24 51°14.048 2°55.471 14.641409 0.004872 0.029836 -0.646411
2004-02-03 07:50:28 51°14.056 2°55.465 14.617701 0.004872 0.029836 -0.646411
2004-02-03 07:50:34 51°14.069 2°55.456 14.617701 0.004872 0.029836 -0.646411
2004-02-03 07:50:39 51°14.079 2°55.449 14.661349 0.004872 0.029836 -0.612702
2004-02-03 07:50:44 51°14.089 2°55.441 14.651468 0.004872 0.029836 -0.612702
2004-02-03 07:50:50 51°14.102 2°55.432 14.630037 0.004872 0.029836 -0.646411
2004-02-03 07:50:54 51°14.11 2°55.426 14.590439 0.004872 0.029836 -0.646411
2004-02-03 07:50:59 51°14.121 2°55.418 14.686791 0.004872 0.029836 -0.646411
2004-02-03 07:51:04 51°14.131 2°55.41 14.686791 0.004872 0.029836 -0.646411
2004-02-03 07:51:09 51°14.14 2°55.402 14.567938 0.004872 0.029836 -0.646411
2004-02-03 07:51:14 51°14.149 2°55.394 14.603437 0.004872 0.029836 -0.680121
2004-02-03 07:51:19 51°14.158 2°55.386 14.625269 0.004872 0.029836 -0.646411
2004-02-03 07:51:24 51°14.166 2°55.379 14.683076 0.004872 0.029836 -0.680121
2004-02-03 07:51:28 51°14.172 2°55.372 14.720217 0.004872 0.029835 -0.646411
2004-02-03 07:51:34 51°14.181 2°55.363 14.720217 0.004872 0.029835 -0.646411
2004-02-03 07:51:39 51°14.188 2°55.355 14.732011 0.004872 0.029836 -0.612702
2004-02-03 07:51:44 51°14.195 2°55.347 14.665022 0.004872 0.029835 -0.612702
2004-02-03 07:51:50 51°14.203 2°55.338 14.654179 0.004872 0.029835 -0.646411
2004-02-03 07:51:54 51°14.208 2°55.332 14.681939 0.004872 0.029835 -0.646411
2004-02-03 07:51:59 51°14.214 2°55.324 14.666421 0.004872 0.029835 -0.646411
2004-02-03 07:52:04 51°14.22 2°55.317 14.666421 0.004872 0.029835 -0.646411
2004-02-03 07:52:08 51°14.225 2°55.31 14.695007 0.004872 0.029835 -0.646411
2004-02-03 07:52:14 51°14.231 2°55.301 14.665284 0.004872 0.029835 -0.646411
2004-02-03 07:52:19 51°14.236 2°55.294 14.703135 0.004872 0.029835 -0.646411
2004-02-03 07:52:24 51°14.241 2°55.286 14.669219 0.004872 0.029835 -0.612702
2004-02-03 07:52:28 51°14.245 2°55.28 14.629294 0.004872 0.029835 -0.612702
2004-02-03 07:52:34 51°14.251 2°55.271 14.629294 0.004872 0.029835 -0.612702
2004-02-03 07:52:39 51°14.255 2°55.264 14.635636 0.004872 0.029835 -0.612702
2004-02-03 07:52:44 51°14.26 2°55.256 14.676257 0.004872 0.029835 -0.646411
2004-02-03 07:52:48 51°14.263 2°55.251 14.635723 0.004872 0.029835 -0.646411
2004-02-03 07:52:54 51°14.268 2°55.242 14.65243 0.004872 0.029835 -0.646411
2004-02-03 07:52:59 51°14.272 2°55.235 14.63253 0.004872 0.029835 -0.646411
2004-02-03 07:53:04 51°14.276 2°55.228 14.63253 0.004872 0.029835 -0.646411
2004-02-03 07:53:08 51°14.279 2°55.222 14.635548 0.004872 0.029835 -0.646411
2004-02-03 07:53:14 51°14.284 2°55.214 14.581772 0.004872 0.029835 -0.646411
2004-02-03 07:53:19 51°14.288 2°55.207 14.736379 0.004872 0.029835 -0.646411
2004-02-03 07:53:24 51°14.291 2°55.2 14.57433 0.004872 0.029835 -0.612702
2004-02-03 07:53:29 51°14.295 2°55.193 14.613369 0.004872 0.029835 -0.646411
2004-02-03 07:53:34 51°14.298 2°55.186 14.613369 0.004872 0.029835 -0.646411
2004-02-03 07:53:39 51°14.302 2°55.179 14.645302 0.004872 0.029835 -0.612702
2004-02-03 07:53:44 51°14.305 2°55.172 14.588819 0.004872 0.029834 -0.612702
2004-02-03 07:53:49 51°14.309 2°55.165 14.6254 0.004872 0.029834 -0.680121
2004-02-03 07:53:54 51°14.313 2°55.158 14.618444 0.004872 0.029834 -0.612702
2004-02-03 07:53:59 51°14.316 2°55.151 14.636336 0.004872 0.029834 -0.646411
2004-02-03 07:54:04 51°14.32 2°55.143 14.636336 0.004872 0.029834 -0.646411
2004-02-03 07:54:09 51°14.325 2°55.135 14.598535 0.004872 0.029834 -0.612702
2004-02-03 07:54:14 51°14.329 2°55.126 14.648756 0.004872 0.029834 -0.612702
2004-02-03 07:54:19 51°14.335 2°55.116 14.708072 0.004872 0.029834 -0.612702
2004-02-03 07:54:24 51°14.342 2°55.105 14.524098 0.004872 0.029834 -0.612702
2004-02-03 07:54:28 51°14.348 2°55.096 14.502145 0.004872 0.029834 -0.646411
2004-02-03 07:54:34 51°14.357 2°55.081 14.502145 0.004872 0.029834 -0.646411
2004-02-03 07:54:39 51°14.366 2°55.069 14.617919 0.004872 0.029834 -0.646411
2004-02-03 07:54:44 51°14.375 2°55.056 14.516387 0.004872 0.029834 -0.646411
2004-02-03 07:54:48 51°14.383 2°55.045 14.454972 0.004872 0.029834 -0.612702
2004-02-03 07:54:54 51°14.396 2°55.03 14.492809 0.004872 0.029833 -0.646411
2004-02-03 07:54:59 51°14.407 2°55.018 14.344936 0.004872 0.029833 -0.646411
2004-02-03 07:55:04 51°14.42 2°55.007 14.344936 0.004872 0.029833 -0.646411
2004-02-03 07:55:09 51°14.433 2°54.997 13.081644 0.004872 0.029834 -0.612702
2004-02-03 07:55:14 51°14.446 2°54.987 8.815743 0.004872 0.029853 -0.646411
2004-02-03 07:55:18 51°14.457 2°54.979 8.177281 0.302532 1.729984 25.613212
2004-02-03 07:55:24 51°14.473 2°54.967 8.00082 1.803986 12.469313 21.197281
2004-02-03 07:55:30 51°14.489 2°54.954 7.8311 1.853122 13.456983 14.253144
2004-02-03 07:55:34 51°14.5 2°54.946 7.8311 1.853122 13.456983 14.253144
2004-02-03 07:55:40 51°14.517 2°54.933 7.750394 1.894503 14.880742 10.814785
2004-02-03 07:55:44 51°14.528 2°54.924 7.71129 2.258388 19.025463 8.050614
2004-02-03 07:55:50 51°14.544 2°54.911 7.680962 2.76116 24.575129 6.297725
2004-02-03 07:55:54 51°14.555 2°54.902 7.615738 3.035331 27.849462 5.050477
2004-02-03 07:55:59 51°14.569 2°54.891 7.603814 3.064076 28.522038 4.308871
2004-02-03 07:56:04 51°14.583 2°54.88 7.603814 3.064076 28.522038 4.308871
2004-02-03 07:56:08 51°14.593 2°54.871 7.567056 3.084713 28.903213 3.567264
2004-02-03 07:56:14 51°14.608 2°54.858 7.562722 3.076819 28.965115 3.162751
2004-02-03 07:56:18 51°14.618 2°54.85 7.54694 3.161894 29.956471 2.758238
2004-02-03 07:56:24 51°14.632 2°54.837 7.528425 2.135152 19.489273 2.522272
2004-02-03 07:56:29 51°14.643 2°54.828 7.5217 3.31944 31.708295 2.454853
2004-02-03 07:56:34 51°14.654 2°54.818 7.5217 3.31944 31.708295 2.454853
2004-02-03 07:56:39 51°14.665 2°54.808 7.497718 3.313648 31.697789 2.320016
2004-02-03 07:56:44 51°14.675 2°54.799 7.485626 3.328605 31.878601 2.387435
2004-02-03 07:56:49 51°14.685 2°54.79 7.479092 3.339348 32.016525 2.185178
2004-02-03 07:56:54 51°14.695 2°54.782 7.468704 3.338927 32.045138 2.050341
2004-02-03 07:56:59 51°14.705 2°54.773 7.46724 3.34135 32.100251 2.016631
2004-02-03 07:57:04 51°14.715 2°54.764 7.46724 3.34135 32.100251 2.016631
2004-02-03 07:57:09 51°14.725 2°54.756 7.47046 3.335663 32.057409 1.949212
2004-02-03 07:57:14 51°14.735 2°54.748 7.471533 3.328711 31.996437 2.08405
2004-02-03 07:57:19 51°14.744 2°54.74 7.466655 3.321233 31.935984 2.016631
2004-02-03 07:57:24 51°14.753 2°54.732 7.456362 3.305751 31.784778 2.08405
2004-02-03 07:57:28 51°14.761 2°54.726 7.453386 3.295745 31.681986 1.848084
2004-02-03 07:57:34 51°14.772 2°54.717 7.453386 3.295745 31.681986 1.848084
2004-02-03 07:57:39 51°14.781 2°54.709 7.456948 3.288689 31.612916 1.982922
2004-02-03 07:57:44 51°14.791 2°54.7 7.467533 3.286056 31.59554 1.982922
2004-02-03 07:57:48 51°14.8 2°54.692 7.463485 3.285108 31.590777 2.016631
2004-02-03 07:57:54 51°14.814 2°54.68 7.468996 3.283107 31.574789 1.915503
2004-02-03 07:57:59 51°14.827 2°54.669 7.46885 3.279737 31.544205 1.881794
2004-02-03 07:58:04 51°14.84 2°54.657 7.46885 3.279737 31.544205 1.881794
2004-02-03 07:58:09 51°14.853 2°54.645 7.476263 3.275946 31.508366 1.814375
2004-02-03 07:58:14 51°14.867 2°54.633 7.475629 3.271944 31.468759 1.915503
2004-02-03 07:58:18 51°14.878 2°54.622 7.484017 3.266678 31.411134 1.814375
2004-02-03 07:58:24 51°14.895 2°54.605 7.492453 3.260464 31.346463 1.949212
2004-02-03 07:58:30 51°14.912 2°54.588 7.497231 3.253935 31.279952 1.848084
2004-02-03 07:58:34 51°14.924 2°54.576 7.497231 3.253935 31.279952 1.848084
2004-02-03 07:58:40 51°14.942 2°54.559 7.500985 3.249933 31.230553 1.746956
2004-02-03 07:58:44 51°14.955 2°54.547 7.501472 3.242772 31.15735 1.848084
2004-02-03 07:58:50 51°14.973 2°54.529 7.502545 3.2354 31.072162 1.713247
2004-02-03 07:58:54 51°14.986 2°54.518 7.495622 3.227712 30.987421 1.713247
2004-02-03 07:58:59 51°15.002 2°54.503 7.494013 3.223079 30.935181 1.746956
2004-02-03 07:59:04 51°15.018 2°54.489 7.494013 3.223079 30.935181 1.746956
2004-02-03 07:59:08 51°15.031 2°54.478 7.48904 3.221183 30.913544 1.713247
2004-02-03 07:59:14 51°15.05 2°54.461 7.478897 3.228449 30.989274 1.780665
2004-02-03 07:59:18 51°15.063 2°54.449 7.475629 3.238348 31.102024 1.746956
2004-02-03 07:59:24 51°15.083 2°54.432 7.473776 3.250881 31.239133 1.915503
2004-02-03 07:59:30 51°15.103 2°54.415 7.478848 3.266573 31.408495 1.780665
2004-02-03 07:59:34 51°15.116 2°54.403 7.478848 3.266573 31.408495 1.780665
2004-02-03 07:59:38 51°15.129 2°54.391 7.473191 3.283423 31.597227 1.679537
2004-02-03 07:59:44 51°15.148 2°54.372 7.482896 3.296378 31.739247 1.713247
2004-02-03 07:59:50 51°15.168 2°54.354 7.484407 3.306278 31.848772 1.612118
2004-02-03 07:59:54 51°15.181 2°54.341 7.493087 3.314704 31.944164 1.645828
2004-02-03 07:59:59 51°15.197 2°54.326 7.489186 3.31997 32.001208 1.679537
2004-02-03 08:00:04 51°15.214 2°54.311 7.489186 3.31997 32.001208 1.679537
2004-02-03 08:00:10 51°15.234 2°54.293 7.486016 3.32134 32.011972 1.578409
2004-02-03 08:00:14 51°15.248 2°54.281 7.48392 3.323341 32.028713 1.612118
2004-02-03 08:00:19 51°15.264 2°54.266 7.481091 3.325026 32.044398 1.612118
2004-02-03 08:00:24 51°15.281 2°54.252 7.480116 3.330713 32.103629 1.376153
2004-02-03 08:00:29 51°15.298 2°54.237 7.476458 3.337349 32.177671 1.409862
2004-02-03 08:00:34 51°15.315 2°54.222 7.476458 3.337349 32.177671 1.409862
2004-02-03 08:00:39 51°15.332 2°54.207 7.476507 3.343669 32.252266 1.409862
2004-02-03 08:00:44 51°15.349 2°54.192 7.477385 3.349462 32.316591 1.342443
2004-02-03 08:00:49 51°15.366 2°54.176 7.470898 3.354307 32.367663 1.308734
2004-02-03 08:00:54 51°15.383 2°54.162 7.468362 3.358942 32.419625 1.308734
2004-02-03 08:01:00 51°15.403 2°54.143 7.471435 3.364314 32.483429 1.342443
2004-02-03 08:01:04 51°15.417 2°54.131 7.471435 3.364314 32.483429 1.342443
2004-02-03 08:01:10 51°15.437 2°54.113 7.457436 3.366842 32.512081 1.241315
2004-02-03 08:01:14 51°15.45 2°54.101 7.457875 3.370002 32.546723 1.207606
2004-02-03 08:01:19 51°15.467 2°54.086 7.45002 3.374531 32.59999 1.275024
2004-02-03 08:01:24 51°15.484 2°54.07 7.438651 3.378429 32.643347 1.308734
2004-02-03 08:01:28 51°15.498 2°54.058 7.435918 3.382326 32.688297 1.275024
2004-02-03 08:01:34 51°15.518 2°54.04 7.435918 3.382326 32.688297 1.275024
2004-02-03 08:01:38 51°15.532 2°54.028 7.446653 3.38812 32.757568 1.241315
2004-02-03 08:01:44 51°15.552 2°54.01 7.440749 3.392649 32.814906 1.308734
2004-02-03 08:01:49 51°15.569 2°53.995 7.442896 3.398548 32.882215 1.173896
2004-02-03 08:01:54 51°15.586 2°53.98 7.434796 3.402551 32.931582 1.173896
2004-02-03 08:01:59 51°15.603 2°53.965 7.436602 3.40508 32.961936 1.173896
2004-02-03 08:02:04 51°15.62 2°53.949 7.436602 3.40508 32.961936 1.173896
2004-02-03 08:02:08 51°15.633 2°53.936 7.43016 3.407608 32.989102 1.207606
2004-02-03 08:02:14 51°15.653 2°53.917 7.422692 3.409609 33.01141 1.207606
2004-02-03 08:02:20 51°15.673 2°53.898 7.423668 3.412137 33.040984 1.207606
2004-02-03 08:02:24 51°15.686 2°53.885 7.416054 3.413928 33.061836 1.106477
2004-02-03 08:02:30 51°15.706 2°53.866 7.402482 3.417615 33.107091 1.173896
2004-02-03 08:02:34 51°15.719 2°53.854 7.402482 3.417615 33.107091 1.173896
2004-02-03 08:02:39 51°15.736 2°53.838 7.389932 3.418353 33.116626 1.140187
2004-02-03 08:02:44 51°15.753 2°53.823 7.386904 3.426885 33.21566 1.173896
2004-02-03 08:02:48 51°15.767 2°53.811 7.379822 3.43289 33.284324 1.173896
2004-02-03 08:02:54 51°15.787 2°53.793 7.378211 3.440896 33.378627 1.140187
2004-02-03 08:03:00 51°15.807 2°53.775 7.373033 3.447428 33.457924 1.140187
2004-02-03 08:03:04 51°15.82 2°53.762 7.373033 3.447428 33.457924 1.140187
2004-02-03 08:03:09 51°15.837 2°53.747 7.377038 3.452801 33.523975 1.140187
2004-02-03 08:03:14 51°15.854 2°53.732 7.374303 3.457541 33.583254 1.173896
2004-02-03 08:03:19 51°15.871 2°53.717 7.369858 3.46007 33.612982 1.207606
2004-02-03 08:03:24 51°15.887 2°53.701 7.367366 3.462177 33.640619 1.005349
2004-02-03 08:03:28 51°15.901 2°53.689 7.361015 3.463863 33.661265 1.106477
2004-02-03 08:03:34 51°15.921 2°53.671 7.361015 3.463863 33.661265 1.106477
2004-02-03 08:03:38 51°15.934 2°53.658 7.367317 3.463863 33.663717 1.140187
2004-02-03 08:03:44 51°15.955 2°53.64 7.366047 3.465759 33.685009 1.039059
2004-02-03 08:03:50 51°15.975 2°53.622 7.353002 3.467445 33.711396 1.106477
2004-02-03 08:03:54 51°15.988 2°53.609 7.348653 3.46913 33.731241 1.106477
2004-02-03 08:03:58 51°16.002 2°53.597 7.34621 3.469762 33.740528 1.140187
2004-02-03 08:04:04 51°16.021 2°53.578 7.34621 3.469762 33.740528 1.140187
2004-02-03 08:04:09 51°16.038 2°53.562 7.340003 3.467234 33.714853 1.072768
2004-02-03 08:04:14 51°16.055 2°53.547 7.33189 3.472185 33.770809 1.039059
2004-02-03 08:04:19 51°16.071 2°53.532 7.314584 3.473766 33.795276 1.039059
2004-02-03 08:04:24 51°16.088 2°53.517 7.285926 3.47503 33.815516 1.039059
2004-02-03 08:04:30 51°16.108 2°53.499 7.261954 3.47661 33.837537 1.039059
2004-02-03 08:04:34 51°16.121 2°53.487 7.261954 3.47661 33.837537 1.039059
2004-02-03 08:04:39 51°16.138 2°53.472 7.2506 3.479244 33.872609 1.072768
2004-02-03 08:04:44 51°16.154 2°53.457 7.238804 3.48093 33.901562 1.072768
2004-02-03 08:04:49 51°16.171 2°53.442 7.229013 3.482616 33.934664 1.140187
2004-02-03 08:04:54 51°16.188 2°53.426 7.221473 3.484723 33.978982 1.241315
2004-02-03 08:04:59 51°16.204 2°53.411 7.218339 3.485987 34.010077 1.207606
2004-02-03 08:05:04 51°16.221 2°53.396 7.218339 3.485987 34.010077 1.207606
2004-02-03 08:05:10 51°16.241 2°53.378 7.216968 3.486409 34.027914 1.376153
2004-02-03 08:05:14 51°16.254 2°53.366 7.211484 3.486936 34.048569 1.241315
2004-02-03 08:05:19 51°16.271 2°53.351 7.199876 3.486304 34.049185 1.275024
2004-02-03 08:05:24 51°16.287 2°53.337 7.198946 3.485461 34.045852 1.207606
2004-02-03 08:05:29 51°16.303 2°53.321 7.197672 3.485251 34.050212 1.207606
2004-02-03 08:05:34 51°16.32 2°53.307 7.197672 3.485251 34.050212 1.207606
2004-02-03 08:05:39 51°16.336 2°53.291 7.198113 3.486199 34.067159 1.342443
2004-02-03 08:05:44 51°16.353 2°53.277 7.203354 3.485567 34.066948 1.308734
2004-02-03 08:05:49 51°16.369 2°53.262 7.201591 3.485251 34.07017 1.275024
2004-02-03 08:05:54 51°16.386 2°53.247 7.202815 3.484935 34.070065 1.207606
2004-02-03 08:05:59 51°16.403 2°53.232 7.203501 3.484408 34.066007 1.140187
2004-02-03 08:06:04 51°16.419 2°53.217 7.203501 3.484408 34.066007 1.140187
2004-02-03 08:06:10 51°16.439 2°53.199 7.199582 3.483881 34.059452 1.173896
2004-02-03 08:06:14 51°16.452 2°53.187 7.197378 3.483881 34.059452 1.106477
2004-02-03 08:06:19 51°16.468 2°53.172 7.200562 3.482933 34.049982 1.140187
2004-02-03 08:06:24 51°16.485 2°53.157 7.199093 3.483355 34.054561 1.140187
2004-02-03 08:06:28 51°16.498 2°53.145 7.202374 3.483038 34.050295 1.140187
2004-02-03 08:06:34 51°16.518 2°53.127 7.202374 3.483038 34.050295 1.140187
2004-02-03 08:06:38 51°16.53 2°53.115 7.201248 3.48346 34.057369 1.039059
2004-02-03 08:06:44 51°16.55 2°53.097 7.197966 3.482617 34.048212 1.106477
2004-02-03 08:06:50 51°16.57 2°53.079 7.20164 3.482617 34.050708 1.072768
2004-02-03 08:06:54 51°16.583 2°53.067 7.205754 3.481985 34.043008 1.072768
2004-02-03 08:06:59 51°16.599 2°53.052 7.210749 3.48188 34.041863 1.207606
2004-02-03 08:07:04 51°16.615 2°53.036 7.210749 3.48188 34.041863 1.207606
2004-02-03 08:07:09 51°16.632 2°53.021 7.21021 3.48209 34.044984 1.173896
2004-02-03 08:07:14 51°16.647 2°53.006 7.216087 3.482196 34.046129 1.106477
2004-02-03 08:07:19 51°16.663 2°52.991 7.216283 3.482196 34.044466 1.173896
2004-02-03 08:07:24 51°16.68 2°52.975 7.222599 3.481037 34.02855 1.241315
2004-02-03 08:07:29 51°16.696 2°52.96 7.228426 3.480089 34.014928 1.140187
2004-02-03 08:07:34 51°16.713 2°52.945 7.228426 3.480089 34.014928 1.140187
2004-02-03 08:07:40 51°16.733 2°52.93 7.234496 3.481247 34.027515 1.241315
2004-02-03 08:07:44 51°16.747 2°52.92 7.234202 3.481774 34.032405 1.275024
2004-02-03 08:07:50 51°16.768 2°52.906 7.239685 3.48209 34.031682 1.376153
2004-02-03 08:07:54 51°16.782 2°52.897 7.240273 3.482722 34.033561 1.275024
2004-02-03 08:07:59 51°16.799 2°52.887 7.243405 3.48209 34.024205 1.477281
2004-02-03 08:08:04 51°16.817 2°52.877 7.243405 3.48209 34.024205 1.477281
2004-02-03 08:08:08 51°16.831 2°52.869 7.245118 3.482933 34.027541 1.308734
2004-02-03 08:08:14 51°16.852 2°52.857 7.246929 3.483776 34.032538 1.241315
2004-02-03 08:08:18 51°16.866 2°52.85 7.249768 3.484618 34.040026 1.308734
2004-02-03 08:08:24 51°16.887 2°52.838 7.252802 3.485356 34.045539 1.342443
2004-02-03 08:08:30 51°16.908 2°52.826 7.252705 3.485145 34.042421 1.342443
2004-02-03 08:08:34 51°16.922 2°52.818 7.252705 3.485145 34.042421 1.342443
2004-02-03 08:08:39 51°16.94 2°52.808 7.254466 3.486199 34.049703 1.443571
2004-02-03 08:08:44 51°16.957 2°52.798 7.256375 3.486304 34.050846 1.443571
2004-02-03 08:08:50 51°16.979 2°52.786 7.256424 3.48662 34.052615 1.308734
2004-02-03 08:08:54 51°16.993 2°52.778 7.261024 3.488306 34.069249 1.342443
2004-02-03 08:08:58 51°17.007 2°52.77 7.25892 3.487674 34.060726 1.308734
2004-02-03 08:09:04 51°17.029 2°52.758 7.25892 3.487674 34.060726 1.308734
2004-02-03 08:09:10 51°17.05 2°52.745 7.256864 3.4882 34.067274 1.342443
2004-02-03 08:09:14 51°17.065 2°52.737 7.258675 3.489148 34.074241 1.477281
2004-02-03 08:09:20 51°17.087 2°52.725 7.257941 3.489254 34.073722 1.409862
2004-02-03 08:09:24 51°17.101 2°52.716 7.258039 3.489991 34.083388 1.51099
2004-02-03 08:09:30 51°17.122 2°52.704 7.258577 3.490623 34.089417 1.376153
2004-02-03 08:09:34 51°17.136 2°52.696 7.258577 3.490623 34.089417 1.376153
2004-02-03 08:09:39 51°17.154 2°52.687 7.260828 3.491045 34.095655 1.308734
2004-02-03 08:09:44 51°17.173 2°52.679 7.262198 3.490939 34.092848 1.51099
2004-02-03 08:09:48 51°17.187 2°52.672 7.259311 3.491993 34.102619 1.443571
2004-02-03 08:09:54 51°17.209 2°52.663 7.261366 3.492309 34.109377 1.275024
2004-02-03 08:09:58 51°17.224 2°52.657 7.262345 3.49273 34.110623 1.308734
2004-02-03 08:10:04 51°17.246 2°52.649 7.262345 3.49273 34.110623 1.308734
2004-02-03 08:10:10 51°17.268 2°52.641 7.259898 3.492941 34.112078 1.308734
2004-02-03 08:10:14 51°17.283 2°52.634 7.25892 3.492941 34.110414 1.342443
2004-02-03 08:10:19 51°17.301 2°52.628 7.256375 3.493363 34.117485 1.308734
2004-02-03 08:10:24 51°17.32 2°52.62 7.252215 3.493784 34.123723 1.308734
2004-02-03 08:10:30 51°17.342 2°52.611 7.253928 3.493573 34.118939 1.275024
2004-02-03 08:10:34 51°17.357 2°52.606 7.253928 3.493573 34.118939 1.275024
2004-02-03 08:10:39 51°17.375 2°52.598 7.256179 3.493573 34.121436 1.308734
2004-02-03 08:10:44 51°17.393 2°52.59 7.251041 3.4941 34.128819 1.51099
2004-02-03 08:10:49 51°17.412 2°52.583 7.251187 3.494311 34.134438 1.342443
2004-02-03 08:10:54 51°17.431 2°52.576 7.252656 3.494627 34.137869 1.443571
2004-02-03 08:10:59 51°17.449 2°52.57 7.246342 3.494205 34.132461 1.578409
2004-02-03 08:11:04 51°17.468 2°52.566 7.246342 3.494205 34.132461 1.578409
2004-02-03 08:11:09 51°17.487 2°52.562 7.252215 3.495154 34.146088 1.5447
2004-02-03 08:11:14 51°17.506 2°52.56 7.247027 3.495048 34.14661 1.5447
2004-02-03 08:11:19 51°17.525 2°52.558 7.245804 3.495154 34.147754 1.443571
2004-02-03 08:11:24 51°17.544 2°52.556 7.242084 3.495364 34.151709 1.443571
2004-02-03 08:11:30 51°17.567 2°52.554 7.239783 3.49547 34.152853 1.342443
2004-02-03 08:11:34 51°17.582 2°52.552 7.239783 3.49547 34.152853 1.342443
2004-02-03 08:11:39 51°17.601 2°52.55 7.241252 3.495786 34.157118 1.578409
2004-02-03 08:11:44 51°17.62 2°52.548 7.238657 3.496102 34.163052 1.443571
2004-02-03 08:11:49 51°17.639 2°52.546 7.237531 3.496102 34.163886 1.578409
2004-02-03 08:11:54 51°17.658 2°52.544 7.235622 3.496207 34.167532 1.5447
2004-02-03 08:11:58 51°17.673 2°52.542 7.235573 3.496418 34.172322 1.578409
2004-02-03 08:12:04 51°17.696 2°52.539 7.235573 3.496418 34.172322 1.578409
2004-02-03 08:12:09 51°17.715 2°52.537 7.234447 3.496734 34.17659 1.51099
2004-02-03 08:12:14 51°17.734 2°52.535 7.238315 3.49684 34.180237 1.578409
2004-02-03 08:12:19 51°17.753 2°52.532 7.234986 3.49684 34.178569 1.51099
2004-02-03 08:12:24 51°17.772 2°52.53 7.23479 3.496945 34.183886 1.713247
2004-02-03 08:12:30 51°17.795 2°52.527 7.233321 3.497156 34.18534 1.5447
2004-02-03 08:12:34 51°17.81 2°52.525 7.233321 3.497156 34.18534 1.5447
2004-02-03 08:12:39 51°17.829 2°52.523 7.23244 3.497261 34.18565 1.477281
2004-02-03 08:12:44 51°17.848 2°52.521 7.233419 3.497577 34.190754 1.477281
2004-02-03 08:12:48 51°17.864 2°52.52 7.232587 3.497788 34.194713 1.477281
2004-02-03 08:12:54 51°17.886 2°52.517 7.232342 3.497261 34.188154 1.578409
2004-02-03 08:12:59 51°17.905 2°52.515 7.227936 3.497682 34.193568 1.578409
2004-02-03 08:13:04 51°17.925 2°52.513 7.227936 3.497682 34.193568 1.578409
2004-02-03 08:13:09 51°17.943 2°52.511 7.226957 3.497893 34.197527 1.51099
2004-02-03 08:13:14 51°17.963 2°52.51 7.228866 3.497999 34.199507 1.477281
2004-02-03 08:13:19 51°17.982 2°52.509 7.230335 3.497999 34.201178 1.645828
2004-02-03 08:13:24 51°18.001 2°52.508 7.230041 3.498315 34.207954 1.443571
2004-02-03 08:13:29 51°18.02 2°52.511 7.230971 3.498525 34.209408 1.612118
2004-02-03 08:13:34 51°18.039 2°52.511 7.230971 3.498525 34.209408 1.612118
2004-02-03 08:13:39 51°18.059 2°52.514 7.229209 3.497893 34.200868 1.51099
2004-02-03 08:13:44 51°18.078 2°52.516 7.229552 3.49842 34.207428 1.376153
2004-02-03 08:13:50 51°18.1 2°52.522 7.224509 3.497999 34.202848 1.612118
2004-02-03 08:13:54 51°18.116 2°52.522 7.220151 3.497999 34.202848 1.443571
2004-02-03 08:13:59 51°18.135 2°52.529 7.225439 3.497261 34.192328 1.376153
2004-02-03 08:14:04 51°18.154 2°52.533 7.225439 3.497261 34.192328 1.376153
2004-02-03 08:14:10 51°18.177 2°52.542 7.219857 3.49684 34.189419 1.679537
2004-02-03 08:14:14 51°18.192 2°52.549 7.220102 3.492942 34.149563 1.5447
2004-02-03 08:14:19 51°18.21 2°52.56 7.232293 3.492942 34.152065 1.578409
2004-02-03 08:14:24 51°18.227 2°52.575 7.226467 3.49389 34.164872 1.5447
2004-02-03 08:14:29 51°18.245 2°52.586 7.218339 3.495154 34.177778 1.645828
2004-02-03 08:14:34 51°18.262 2°52.602 7.218339 3.495154 34.177778 1.645828
2004-02-03 08:14:38 51°18.275 2°52.614 7.219319 3.493258 34.158837 1.477281
2004-02-03 08:14:44 51°18.294 2°52.636 7.217164 3.488833 34.105754 1.578409
2004-02-03 08:14:49 51°18.307 2°52.658 7.217409 3.483354 34.041257 1.679537
2004-02-03 08:14:54 51°18.322 2°52.678 7.22255 3.491677 34.139995 1.376153
2004-02-03 08:14:59 51°18.335 2°52.701 7.216772 3.492415 34.149677 1.612118
2004-02-03 08:15:04 51°18.349 2°52.722 7.216772 3.492415 34.149677 1.612118
2004-02-03 08:15:10 51°18.364 2°52.751 7.215009 3.494101 34.168831 1.645828
2004-02-03 08:15:14 51°18.374 2°52.769 7.225782 3.49389 34.166541 1.5447
2004-02-03 08:15:19 51°18.386 2°52.794 7.221228 3.491783 34.141974 1.679537
2004-02-03 08:15:24 51°18.398 2°52.817 7.218829 3.49547 34.187058 1.51099
2004-02-03 08:15:29 51°18.411 2°52.841 7.215499 3.495365 34.187583 1.578409
2004-02-03 08:15:34 51°18.424 2°52.865 7.215499 3.495365 34.187583 1.578409
2004-02-03 08:15:39 51°18.435 2°52.89 7.213589 3.494206 34.173315 1.578409
2004-02-03 08:15:44 51°18.447 2°52.915 7.220445 3.495154 34.182787 1.5447
2004-02-03 08:15:49 51°18.458 2°52.941 7.219319 3.49389 34.168211 1.679537
2004-02-03 08:15:54 51°18.469 2°52.967 7.219514 3.495576 34.191544 1.51099
2004-02-03 08:15:59 51°18.481 2°52.992 7.214961 3.495892 34.19498 1.612118
2004-02-03 08:16:04 51°18.491 2°53.018 7.214961 3.495892 34.19498 1.612118
2004-02-03 08:16:09 51°18.503 2°53.043 7.21927 3.495365 34.187583 1.477281
2004-02-03 08:16:14 51°18.515 2°53.069 7.224313 3.496208 34.19591 1.612118
2004-02-03 08:16:19 51°18.525 2°53.095 7.216528 3.496102 34.194765 1.679537
2004-02-03 08:16:24 51°18.536 2°53.121 7.211875 3.496734 34.204979 1.578409
2004-02-03 08:16:29 51°18.546 2°53.148 7.218339 3.495997 34.196126 1.645828
2004-02-03 08:16:34 51°18.556 2°53.176 7.218339 3.495997 34.196126 1.645828
2004-02-03 08:16:39 51°18.565 2°53.204 7.21545 3.495786 34.192164 1.5447
2004-02-03 08:16:44 51°18.573 2°53.232 7.214569 3.496629 34.202162 1.679537
2004-02-03 08:16:48 51°18.58 2°53.254 7.21545 3.496629 34.202998 1.578409
2004-02-03 08:16:54 51°18.59 2°53.29 7.210112 3.49684 34.206125 1.51099
2004-02-03 08:16:59 51°18.599 2°53.32 7.210504 3.496945 34.20727 1.612118
2004-02-03 08:17:04 51°18.607 2°53.348 7.210504 3.496945 34.20727 1.612118
2004-02-03 08:17:10 51°18.615 2°53.382 7.214373 3.497472 34.212998 1.645828
2004-02-03 08:17:14 51°18.621 2°53.406 7.21168 3.497472 34.215505 1.645828
2004-02-03 08:17:19 51°18.63 2°53.436 7.215107 3.497893 34.220924 1.612118
2004-02-03 08:17:24 51°18.638 2°53.466 7.210553 3.497577 34.219996 1.578409
2004-02-03 08:17:28 51°18.645 2°53.489 7.217899 3.497367 34.216868 1.612118
2004-02-03 08:17:34 51°18.653 2°53.525 7.217899 3.497367 34.216868 1.612118
2004-02-03 08:17:39 51°18.661 2°53.553 7.219172 3.497788 34.221451 1.376153
2004-02-03 08:17:44 51°18.667 2°53.583 7.216576 3.498104 34.222379 1.645828
2004-02-03 08:17:49 51°18.674 2°53.611 7.21785 3.497893 34.22176 1.5447
2004-02-03 08:17:54 51°18.682 2°53.642 7.21878 3.497893 34.220924 1.443571
2004-02-03 08:17:59 51°18.692 2°53.67 7.215009 3.497999 34.218725 1.5447
2004-02-03 08:18:04 51°18.699 2°53.698 7.215009 3.497999 34.218725 1.5447
2004-02-03 08:18:09 51°18.707 2°53.726 7.220837 3.498209 34.221016 1.612118
2004-02-03 08:18:14 51°18.714 2°53.755 7.221816 3.498315 34.221326 1.5447
2004-02-03 08:18:19 51°18.723 2°53.783 7.221522 3.49842 34.224143 1.578409
2004-02-03 08:18:24 51°18.731 2°53.812 7.222844 3.498631 34.228107 1.645828
2004-02-03 08:18:29 51°18.739 2°53.842 7.227691 3.49842 34.224143 1.409862
2004-02-03 08:18:34 51°18.748 2°53.871 7.227691 3.49842 34.224143 1.409862
2004-02-03 08:18:38 51°18.755 2°53.893 7.224949 3.497999 34.217889 1.578409
2004-02-03 08:18:44 51°18.764 2°53.926 7.230041 3.498209 34.219344 1.376153
2004-02-03 08:18:50 51°18.774 2°53.961 7.229552 3.498315 34.221326 1.612118
2004-02-03 08:18:54 51°18.78 2°53.984 7.230776 3.498104 34.215691 1.5447
2004-02-03 08:18:59 51°18.788 2°54.014 7.2343 3.49842 34.218291 1.376153
2004-02-03 08:19:04 51°18.795 2°54.043 7.2343 3.49842 34.218291 1.376153
2004-02-03 08:19:10 51°18.804 2°54.078 7.236112 3.498104 34.213183 1.409862
2004-02-03 08:19:14 51°18.811 2°54.101 7.230335 3.497999 34.211202 1.409862
2004-02-03 08:19:19 51°18.821 2°54.129 7.231657 3.498209 34.211822 1.275024
2004-02-03 08:19:24 51°18.829 2°54.157 7.232734 3.49842 34.211605 1.578409
2004-02-03 08:19:29 51°18.836 2°54.185 7.235279 3.498315 34.208789 1.477281
2004-02-03 08:19:34 51°18.844 2°54.215 7.235279 3.498315 34.208789 1.477281
2004-02-03 08:19:39 51°18.852 2°54.244 7.238168 3.467973 33.87924 1.477281
2004-02-03 08:19:44 51°18.86 2°54.273 7.237238 3.498525 34.211915 1.477281
2004-02-03 08:19:48 51°18.866 2°54.296 7.243307 3.498315 34.208789 1.443571
2004-02-03 08:19:54 51°18.875 2°54.33 7.243307 3.489781 34.116056 1.612118
2004-02-03 08:19:59 51°18.882 2°54.359 7.24365 3.498736 34.212534 1.578409
2004-02-03 08:20:04 51°18.89 2°54.387 7.24365 3.498736 34.212534 1.578409
2004-02-03 08:20:10 51°18.899 2°54.423 7.24644 3.498947 34.213153 1.477281
2004-02-03 08:20:14 51°18.906 2°54.446 7.242524 3.499052 34.210956 1.376153
2004-02-03 08:20:19 51°18.913 2°54.475 7.245804 3.498841 34.206996 1.612118
2004-02-03 08:20:24 51°18.92 2°54.504 7.248055 3.498947 34.208141 1.5447
2004-02-03 08:20:28 51°18.927 2°54.527 7.24781 3.498525 34.202726 1.376153
2004-02-03 08:20:34 51°18.937 2°54.561 7.24781 3.498525 34.202726 1.376153
2004-02-03 08:20:39 51°18.946 2°54.59 7.248006 3.498525 34.201891 1.51099
2004-02-03 08:20:44 51°18.954 2°54.618 7.248202 3.498631 34.203036 1.51099
2004-02-03 08:20:48 51°18.961 2°54.642 7.251187 3.498631 34.203036 1.477281
2004-02-03 08:20:54 51°18.971 2°54.676 7.254417 3.49842 34.200747 1.5447
2004-02-03 08:20:58 51°18.977 2°54.7 7.256571 3.498525 34.200221 1.477281
2004-02-03 08:21:04 51°18.988 2°54.735 7.256571 3.498525 34.200221 1.477281
2004-02-03 08:21:08 51°18.995 2°54.758 7.25843 3.498525 34.199386 1.376153
2004-02-03 08:21:14 51°19.005 2°54.792 7.257452 3.498736 34.200006 1.5447
2004-02-03 08:21:19 51°19.014 2°54.821 7.260583 3.498631 34.197192 1.477281
2004-02-03 08:21:24 51°19.023 2°54.85 7.260534 3.498209 34.190944 1.477281
2004-02-03 08:21:29 51°19.031 2°54.879 7.265036 3.49842 34.191564 1.477281
2004-02-03 08:21:34 51°19.04 2°54.909 7.265036 3.49842 34.191564 1.477281
2004-02-03 08:21:38 51°19.047 2°54.933 7.262492 3.49842 34.189895 1.342443
2004-02-03 08:21:44 51°19.058 2°54.968 7.262296 3.49842 34.189895 1.376153
2004-02-03 08:21:48 51°19.064 2°54.991 7.264792 3.498525 34.190205 1.51099
2004-02-03 08:21:54 51°19.073 2°55.026 7.26714 3.49863 34.188846 1.578409
2004-02-03 08:21:59 51°19.081 2°55.056 7.265868 3.498525 34.186868 1.409862
2004-02-03 08:22:04 51°19.09 2°55.085 7.265868 3.498525 34.186868 1.409862
2004-02-03 08:22:08 51°19.096 2°55.108 7.2644 3.498525 34.186033 1.5447
2004-02-03 08:22:14 51°19.107 2°55.143 7.264938 3.49842 34.184889 1.51099
2004-02-03 08:22:18 51°19.114 2°55.166 7.267972 3.498736 34.185819 1.376153
2004-02-03 08:22:24 51°19.125 2°55.199 7.264792 3.49863 34.183841 1.645828
2004-02-03 08:22:28 51°19.132 2°55.221 7.268168 3.49863 34.186343 1.679537
2004-02-03 08:22:34 51°19.143 2°55.257 7.268168 3.49863 34.186343 1.679537
2004-02-03 08:22:39 51°19.152 2°55.286 7.267434 3.49842 34.183221 1.376153
2004-02-03 08:22:44 51°19.159 2°55.315 7.268315 3.49842 34.181553 1.51099
2004-02-03 08:22:49 51°19.167 2°55.344 7.273403 3.498736 34.185819 1.477281
2004-02-03 08:22:54 51°19.176 2°55.373 7.273696 3.49863 34.183841 1.51099
2004-02-03 08:22:59 51°19.183 2°55.403 7.272816 3.49863 34.183007 1.5447
2004-02-03 08:23:04 51°19.191 2°55.433 7.272816 3.49863 34.183007 1.5447
2004-02-03 08:23:10 51°19.201 2°55.468 7.273794 3.498841 34.184461 1.51099
2004-02-03 08:23:14 51°19.207 2°55.491 7.272082 3.498841 34.181959 1.5447
2004-02-03 08:23:19 51°19.214 2°55.522 7.278295 3.499052 34.181746 1.5447
2004-02-03 08:23:24 51°19.222 2°55.552 7.276338 3.498736 34.179148 1.645828
2004-02-03 08:23:30 51°19.231 2°55.587 7.278002 3.498841 34.179458 1.612118
2004-02-03 08:23:34 51°19.238 2°55.61 7.278002 3.498841 34.179458 1.612118
2004-02-03 08:23:39 51°19.245 2°55.639 7.276974 3.49863 34.17717 1.578409
2004-02-03 08:23:44 51°19.254 2°55.668 7.278246 3.498736 34.175813 1.713247
2004-02-03 08:23:49 51°19.263 2°55.698 7.277268 3.498736 34.176646 1.578409
2004-02-03 08:23:54 51°19.271 2°55.728 7.277463 3.49863 34.174669 1.51099
2004-02-03 08:23:59 51°19.279 2°55.758 7.281084 3.498736 34.174979 1.578409
2004-02-03 08:24:04 51°19.285 2°55.788 7.281084 3.498736 34.174979 1.578409
2004-02-03 08:24:08 51°19.291 2°55.811 7.282893 3.49863 34.173835 1.477281
2004-02-03 08:24:14 51°19.3 2°55.847 7.282258 3.498736 34.175813 1.5447
2004-02-03 08:24:19 51°19.308 2°55.876 7.281279 3.49863 34.175502 1.5447
2004-02-03 08:24:24 51°19.316 2°55.904 7.282111 3.49863 34.173002 1.578409
2004-02-03 08:24:30 51°19.326 2°55.939 7.279958 3.49863 34.170501 1.578409
2004-02-03 08:24:34 51°19.332 2°55.963 7.279958 3.49863 34.170501 1.578409
2004-02-03 08:24:39 51°19.34 2°55.993 7.281279 3.49842 34.168214 1.612118
2004-02-03 08:24:44 51°19.347 2°56.024 7.281426 3.498841 34.174456 1.645828
2004-02-03 08:24:48 51°19.354 2°56.047 7.28485 3.498736 34.173312 1.477281
2004-02-03 08:24:54 51°19.363 2°56.083 7.284214 3.498841 34.174456 1.578409
2004-02-03 08:25:00 51°19.371 2°56.118 7.287589 3.498736 34.174145 1.578409
2004-02-03 08:25:04 51°19.378 2°56.141 7.287589 3.498736 34.174145 1.578409
2004-02-03 08:25:08 51°19.384 2°56.166 7.288078 3.498736 34.172478 1.578409
2004-02-03 08:25:14 51°19.395 2°56.203 7.285339 3.49863 34.170501 1.645828
2004-02-03 08:25:19 51°19.403 2°56.233 7.286953 3.498841 34.171122 1.645828
2004-02-03 08:25:24 51°19.411 2°56.262 7.288568 3.498841 34.169455 1.51099
2004-02-03 08:25:28 51°19.416 2°56.286 7.287883 3.498841 34.168622 1.679537
2004-02-03 08:25:34 51°19.425 2°56.323 7.287883 3.498841 34.168622 1.679537
2004-02-03 08:25:38 51°19.433 2°56.348 7.28803 3.498946 34.172266 1.443571
2004-02-03 08:25:44 51°19.443 2°56.384 7.28803 3.498946 34.170599 1.645828
2004-02-03 08:25:48 51°19.45 2°56.407 7.287589 3.498946 34.169766 1.5447
2004-02-03 08:25:54 51°19.458 2°56.441 7.289497 3.499052 34.169243 1.578409
2004-02-03 08:26:00 51°19.469 2°56.478 7.290133 3.498841 34.168622 1.612118
2004-02-03 08:26:04 51°19.476 2°56.503 7.290133 3.498841 34.168622 1.612118
2004-02-03 08:26:09 51°19.484 2°56.532 7.287834 3.498841 34.168622 1.612118
2004-02-03 08:26:14 51°19.492 2°56.559 7.289497 3.498841 34.166956 1.713247
2004-02-03 08:26:19 51°19.499 2°56.589 7.28979 3.498841 34.167789 1.612118
2004-02-03 08:26:24 51°19.507 2°56.619 7.290915 3.498946 34.167266 1.645828
2004-02-03 08:26:28 51°19.513 2°56.644 7.29297 3.499052 34.169243 1.645828
2004-02-03 08:26:34 51°19.523 2°56.68 7.29297 3.499052 34.169243 1.645828
2004-02-03 08:26:39 51°19.53 2°56.71 7.291845 3.499052 34.169243 1.713247
2004-02-03 08:26:44 51°19.538 2°56.74 7.293948 3.499052 34.167576 1.578409
2004-02-03 08:26:48 51°19.544 2°56.764 7.293067 3.499052 34.167576 1.645828
2004-02-03 08:26:54 51°19.553 2°56.801 7.293948 3.498841 34.164456 1.612118
2004-02-03 08:26:59 51°19.562 2°56.83 7.2916 3.498841 34.163623 1.679537
2004-02-03 08:27:04 51°19.57 2°56.86 7.2916 3.498841 34.163623 1.679537
2004-02-03 08:27:09 51°19.578 2°56.889 7.290622 3.498946 34.1656 1.679537
2004-02-03 08:27:14 51°19.587 2°56.919 7.290328 3.498946 34.163101 1.612118
2004-02-03 08:27:19 51°19.595 2°56.948 7.293556 3.499052 34.165077 1.713247
2004-02-03 08:27:24 51°19.602 2°56.977 7.294143 3.498946 34.163934 1.746956
2004-02-03 08:27:29 51°19.611 2°57.006 7.29473 3.498946 34.163934 1.713247
2004-02-03 08:27:34 51°19.619 2°57.037 7.29473 3.498946 34.163934 1.713247
2004-02-03 08:27:39 51°19.627 2°57.066 7.293508 3.498841 34.164456 1.612118
2004-02-03 08:27:44 51°19.634 2°57.096 7.293165 3.499157 34.167054 1.881794
2004-02-03 08:27:50 51°19.643 2°57.133 7.297567 3.498841 34.16279 1.679537
2004-02-03 08:27:54 51°19.65 2°57.157 7.2961 3.498841 34.161958 1.612118
2004-02-03 08:27:59 51°19.657 2°57.188 7.297616 3.498946 34.163101 1.713247
2004-02-03 08:28:04 51°19.665 2°57.218 7.297616 3.498946 34.163101 1.713247
2004-02-03 08:28:08 51°19.67 2°57.243 7.295513 3.498841 34.161958 1.780665
2004-02-03 08:28:14 51°19.679 2°57.278 7.296002 3.499051 34.162578 1.746956
2004-02-03 08:28:20 51°19.687 2°57.315 7.296784 3.328504 32.318259 1.713247
2004-02-03 08:28:24 51°19.693 2°57.339 7.295366 3.065456 29.503238 1.679537
2004-02-03 08:28:29 51°19.701 2°57.369 7.29248 2.057838 19.046907 1.679537
2004-02-03 08:28:34 51°19.709 2°57.399 7.29248 2.057838 19.046907 1.679537
2004-02-03 08:28:39 51°19.718 2°57.429 7.293361 3.334297 32.379062 1.679537
2004-02-03 08:28:44 51°19.726 2°57.459 7.295024 3.335983 32.398001 1.780665
2004-02-03 08:28:49 51°19.734 2°57.489 7.297616 2.395064 22.487945 1.679537
2004-02-03 08:28:54 51°19.742 2°57.519 7.295855 3.17043 30.623224 1.881794
2004-02-03 08:28:59 51°19.749 2°57.55 7.299817 2.455625 23.112732 1.679537
2004-02-03 08:29:04 51°19.755 2°57.58 7.299817 2.455625 23.112732 1.679537
2004-02-03 08:29:09 51°19.762 2°57.61 7.299083 3.499368 34.166841 1.814375
2004-02-03 08:29:14 51°19.769 2°57.641 7.297518 3.499578 34.168295 1.612118
2004-02-03 08:29:19 51°19.777 2°57.671 7.297518 3.499473 34.165486 1.713247
2004-02-03 08:29:24 51°19.785 2°57.702 7.297273 3.499894 34.168393 1.679537
2004-02-03 08:29:30 51°19.796 2°57.738 7.295268 3.499473 34.162155 1.679537
2004-02-03 08:29:34 51°19.802 2°57.761 7.295268 3.499473 34.162155 1.679537
2004-02-03 08:29:39 51°19.81 2°57.792 7.299621 3.499684 34.164441 1.780665
2004-02-03 08:29:44 51°19.818 2°57.822 7.296149 3.499578 34.165796 1.679537
2004-02-03 08:29:49 51°19.827 2°57.852 7.295122 3.499262 34.163199 1.713247
2004-02-03 08:29:54 51°19.836 2°57.882 7.29786 3.499157 34.164555 1.814375
2004-02-03 08:29:59 51°19.843 2°57.911 7.296784 3.498525 34.154364 1.780665
2004-02-03 08:30:04 51°19.851 2°57.941 7.296784 3.498525 34.154364 1.780665
2004-02-03 08:30:08 51°19.856 2°57.965 7.295464 3.498735 34.158316 1.780665
2004-02-03 08:30:14 51°19.865 2°58.003 7.298203 3.499051 34.161746 1.713247
2004-02-03 08:30:18 51°19.872 2°58.028 7.293997 3.498946 34.15977 1.713247
2004-02-03 08:30:24 51°19.883 2°58.064 7.293508 3.498946 34.160602 1.814375
2004-02-03 08:30:29 51°19.891 2°58.093 7.295366 3.499368 34.165175 1.848084
2004-02-03 08:30:34 51°19.899 2°58.123 7.295366 3.499368 34.165175 1.848084
2004-02-03 08:30:39 51°19.907 2°58.154 7.293263 3.499368 34.16351 1.881794
2004-02-03 08:30:44 51°19.916 2°58.185 7.292529 3.499262 34.164032 1.713247
2004-02-03 08:30:48 51°19.922 2°58.209 7.292725 3.499262 34.165698 1.949212
2004-02-03 08:30:54 51°19.93 2°58.244 7.290769 3.499157 34.165388 1.982922
2004-02-03 08:30:59 51°19.937 2°58.274 7.29116 3.498946 34.163101 1.814375
2004-02-03 08:31:04 51°19.946 2°58.305 7.29116 3.498946 34.163101 1.814375
2004-02-03 08:31:09 51°19.955 2°58.337 7.284703 3.499157 34.167054 1.780665
2004-02-03 08:31:14 51°19.963 2°58.366 7.284557 3.499262 34.167364 1.881794
2004-02-03 08:31:19 51°19.97 2°58.395 7.284557 3.499262 34.168197 2.016631
2004-02-03 08:31:24 51°19.977 2°58.424 7.286318 3.499473 34.169651 1.982922
2004-02-03 08:31:29 51°19.984 2°58.456 7.286073 3.499262 34.172363 1.814375
2004-02-03 08:31:34 51°19.992 2°58.488 7.286073 3.499262 34.172363 1.814375
2004-02-03 08:31:39 51°19.999 2°58.519 7.281915 3.499052 34.169243 1.848084
2004-02-03 08:31:44 51°20.007 2°58.55 7.282796 3.498736 34.167478 1.848084
2004-02-03 08:31:50 51°20.014 2°58.587 7.279958 3.498946 34.168932 1.915503
2004-02-03 08:31:54 51°20.019 2°58.612 7.279029 3.498841 34.168622 2.016631
2004-02-03 08:31:59 51°20.025 2°58.644 7.279518 3.499157 34.175386 1.915503
2004-02-03 08:32:04 51°20.031 2°58.677 7.279518 3.499157 34.175386 1.915503
2004-02-03 08:32:09 51°20.038 2°58.709 7.273109 3.498736 34.170812 2.08405
2004-02-03 08:32:14 51°20.045 2°58.739 7.273696 3.499157 34.175386 1.949212
2004-02-03 08:32:19 51°20.051 2°58.769 7.27306 3.498525 34.171024 2.185178
2004-02-03 08:32:24 51°20.056 2°58.801 7.274088 3.498103 34.167283 1.949212
2004-02-03 08:32:30 51°20.065 2°58.839 7.26714 3.498103 34.16895 2.117759
2004-02-03 08:32:34 51°20.071 2°58.865 7.26714 3.498103 34.16895 2.117759
2004-02-03 08:32:39 51°20.078 2°58.895 7.264302 3.498104 34.170617 2.08405
2004-02-03 08:32:44 51°20.084 2°58.926 7.264889 3.497893 34.169163 2.185178
2004-02-03 08:32:50 51°20.093 2°58.963 7.263911 3.497682 34.166875 2.151469
2004-02-03 08:32:54 51°20.099 2°58.988 7.265085 3.498209 34.176763 2.08405
2004-02-03 08:32:59 51°20.107 2°59.019 7.255445 3.498525 34.182697 2.016631
2004-02-03 08:33:04 51°20.117 2°59.05 7.255445 3.498525 34.182697 2.016631
2004-02-03 08:33:09 51°20.126 2°59.08 7.252656 3.498525 34.183531 1.949212
2004-02-03 08:33:14 51°20.133 2°59.109 7.256326 3.498736 34.189156 2.353725
2004-02-03 08:33:19 51°20.139 2°59.139 7.259262 3.49863 34.188012 2.151469
2004-02-03 08:33:24 51°20.146 2°59.17 7.254613 3.498947 34.195617 2.151469
2004-02-03 08:33:29 51°20.155 2°59.201 7.248789 3.499052 34.2001 2.218888
2004-02-03 08:33:34 51°20.163 2°59.231 7.248789 3.499052 34.2001 2.218888
2004-02-03 08:33:39 51°20.171 2°59.26 7.247859 3.498947 34.198121 2.387435
2004-02-03 08:33:44 51°20.179 2°59.29 7.247663 3.498947 34.198121 2.185178
2004-02-03 08:33:48 51°20.186 2°59.314 7.248496 3.499368 34.204369 2.151469
2004-02-03 08:33:54 51°20.195 2°59.35 7.245559 3.499789 34.212288 2.185178
2004-02-03 08:33:59 51°20.203 2°59.38 7.243356 3.499789 34.213123 2.185178
2004-02-03 08:34:04 51°20.209 2°59.409 7.243356 3.499789 34.213123 2.185178
2004-02-03 08:34:10 51°20.218 2°59.445 7.245755 3.499895 34.215103 2.286306
2004-02-03 08:34:14 51°20.225 2°59.468 7.245804 3.499789 34.213958 2.117759
2004-02-03 08:34:19 51°20.232 2°59.498 7.239636 3.499895 34.216774 2.218888
2004-02-03 08:34:24 51°20.24 2°59.528 7.240175 3.500316 34.223025 2.151469
2004-02-03 08:34:30 51°20.248 2°59.563 7.241154 3.500316 34.223025 2.353725
2004-02-03 08:34:34 51°20.253 2°59.586 7.241154 3.500316 34.223025 2.353725
2004-02-03 08:34:39 51°20.26 2°59.618 7.24179 3.500316 34.226367 2.218888
2004-02-03 08:34:44 51°20.267 2°59.648 7.240028 3.500422 34.229184 2.185178
2004-02-03 08:34:48 51°20.272 2°59.673 7.239636 3.500422 34.229184 2.421144
2004-02-03 08:34:54 51°20.28 2°59.708 7.238315 3.500632 34.231474 2.117759
2004-02-03 08:34:59 51°20.286 2°59.737 7.236112 3.500738 34.231783 2.286306
2004-02-03 08:35:04 51°20.293 2°59.767 7.236112 3.500738 34.231783 2.286306
2004-02-03 08:35:10 51°20.302 2°59.806 7.233811 3.501054 34.236891 2.252597
2004-02-03 08:35:14 51°20.309 2°59.83 7.233174 3.501265 34.239181 2.117759
2004-02-03 08:35:20 51°20.317 2°59.865 7.234888 3.501265 34.240017 2.286306
2004-02-03 08:35:24 51°20.323 2°59.888 7.236259 3.50137 34.242835 2.218888
2004-02-03 08:35:28 51°20.33 2°59.913 7.233419 3.501686 34.24878 2.286306
2004-02-03 08:35:34 51°20.341 2°59.951 7.233419 3.501686 34.24878 2.286306
2004-02-03 08:35:39 51°20.349 2°59.98 7.236161 3.501581 34.249308 2.151469
2004-02-03 08:35:44 51°20.355 3°0.009 7.237189 3.501897 34.252744 2.320016
2004-02-03 08:35:49 51°20.363 3°0.039 7.240175 3.502107 34.255872 2.252597
2004-02-03 08:35:54 51°20.371 3°0.07 7.235133 3.502213 34.256181 2.387435
2004-02-03 08:35:59 51°20.379 3°0.1 7.23851 3.502424 34.259309 2.387435
2004-02-03 08:36:04 51°20.385 3°0.13 7.23851 3.502424 34.259309 2.387435
2004-02-03 08:36:10 51°20.394 3°0.167 7.239979 3.502529 34.257944 2.252597
2004-02-03 08:36:14 51°20.399 3°0.191 7.23807 3.502634 34.258252 2.421144
2004-02-03 08:36:19 51°20.405 3°0.222 7.239489 3.503056 34.263671 2.320016
2004-02-03 08:36:24 51°20.412 3°0.253 7.239636 3.503266 34.265125 2.353725
2004-02-03 08:36:30 51°20.422 3°0.289 7.237238 3.503477 34.265742 2.185178
2004-02-03 08:36:34 51°20.428 3°0.313 7.237238 3.503477 34.265742 2.185178
2004-02-03 08:36:39 51°20.436 3°0.343 7.237825 3.503477 34.266579 2.286306
2004-02-03 08:36:44 51°20.443 3°0.374 7.239538 3.503372 34.265433 2.421144
2004-02-03 08:36:49 51°20.45 3°0.405 7.241105 3.503688 34.269707 2.387435
2004-02-03 08:36:54 51°20.457 3°0.436 7.241447 3.503899 34.272835 2.387435
2004-02-03 08:36:59 51°20.464 3°0.467 7.242867 3.504109 34.272614 2.387435
2004-02-03 08:37:04 51°20.471 3°0.497 7.242867 3.504109 34.272614 2.387435
2004-02-03 08:37:10 51°20.479 3°0.533 7.240321 3.503793 34.270852 2.353725
2004-02-03 08:37:14 51°20.484 3°0.557 7.243552 3.504004 34.270632 2.421144
2004-02-03 08:37:19 51°20.493 3°0.588 7.243356 3.504215 34.272923 2.08405
2004-02-03 08:37:24 51°20.501 3°0.619 7.239245 3.504004 34.270632 2.454853
2004-02-03 08:37:30 51°20.511 3°0.655 7.240224 3.504531 34.273848 2.252597
2004-02-03 08:37:34 51°20.516 3°0.679 7.240224 3.504531 34.273848 2.252597
2004-02-03 08:37:39 51°20.523 3°0.709 7.243454 3.504109 34.269266 2.320016
2004-02-03 08:37:44 51°20.529 3°0.74 7.243699 3.503688 34.265522 2.488563
2004-02-03 08:37:48 51°20.535 3°0.765 7.24272 3.50432 34.274905 2.387435
2004-02-03 08:37:54 51°20.543 3°0.802 7.244482 3.504425 34.273539 2.353725
2004-02-03 08:37:59 51°20.55 3°0.833 7.242916 3.504215 34.271249 2.353725
2004-02-03 08:38:04 51°20.556 3°0.864 7.242916 3.504215 34.271249 2.353725
2004-02-03 08:38:10 51°20.565 3°0.902 7.24365 3.504741 34.276138 2.286306
2004-02-03 08:38:14 51°20.57 3°0.926 7.2483 3.504531 34.272174 2.387435
2004-02-03 08:38:19 51°20.577 3°0.957 7.243552 3.504531 34.272174 2.387435
2004-02-03 08:38:24 51°20.583 3°0.988 7.246097 3.504847 34.27561 2.387435
2004-02-03 08:38:30 51°20.592 3°1.025 7.247174 3.504847 34.27561 2.320016
2004-02-03 08:38:34 51°20.598 3°1.05 7.247174 3.504847 34.27561 2.320016
2004-02-03 08:38:39 51°20.607 3°1.081 7.242084 3.504425 34.272702 2.252597
2004-02-03 08:38:44 51°20.615 3°1.111 7.24365 3.504636 34.274993 2.353725
2004-02-03 08:38:50 51°20.623 3°1.148 7.245069 3.505163 34.279046 2.387435
2004-02-03 08:38:54 51°20.629 3°1.172 7.248936 3.505163 34.279046 2.387435
2004-02-03 08:38:59 51°20.635 3°1.204 7.247027 3.505268 34.281865 2.353725
2004-02-03 08:39:04 51°20.643 3°1.236 7.247027 3.505268 34.281865 2.353725
2004-02-03 08:39:08 51°20.649 3°1.261 7.250306 3.505479 34.284993 2.286306
2004-02-03 08:39:14 51°20.658 3°1.298 7.246587 3.505479 34.282482 2.252597
2004-02-03 08:39:20 51°20.665 3°1.334 7.253047 3.505479 34.280807 2.353725
2004-02-03 08:39:24 51°20.67 3°1.359 7.249279 3.505689 34.282261 2.353725
2004-02-03 08:39:30 51°20.679 3°1.398 7.247272 3.5059 34.284551 2.117759
2004-02-03 08:39:34 51°20.686 3°1.423 7.247272 3.5059 34.284551 2.117759
2004-02-03 08:39:39 51°20.693 3°1.453 7.246342 3.506006 34.285697 2.353725
2004-02-03 08:39:44 51°20.701 3°1.483 7.248153 3.506216 34.285476 2.320016
2004-02-03 08:39:49 51°20.708 3°1.515 7.250306 3.506216 34.283802 2.353725
2004-02-03 08:39:54 51°20.715 3°1.546 7.251677 3.506532 34.290586 2.421144
2004-02-03 08:39:59 51°20.721 3°1.578 7.256571 3.506427 34.291115 2.353725
2004-02-03 08:40:04 51°20.727 3°1.609 7.256571 3.506427 34.291115 2.353725
2004-02-03 08:40:09 51°20.733 3°1.64 7.253634 3.506322 34.289132 2.252597
2004-02-03 08:40:14 51°20.74 3°1.671 7.253488 3.506743 34.292039 2.387435
2004-02-03 08:40:19 51°20.748 3°1.702 7.252362 3.506532 34.289749 2.320016
2004-02-03 08:40:24 51°20.756 3°1.733 7.250257 3.506743 34.289527 2.286306
2004-02-03 08:40:30 51°20.766 3°1.769 7.248936 3.506954 34.290143 2.421144
2004-02-03 08:40:34 51°20.772 3°1.793 7.248936 3.506954 34.290143 2.421144
2004-02-03 08:40:39 51°20.78 3°1.823 7.253634 3.506954 34.290143 2.218888
2004-02-03 08:40:44 51°20.789 3°1.854 7.254564 3.50727 34.295253 2.252597
2004-02-03 08:40:48 51°20.795 3°1.879 7.258283 3.50727 34.296928 2.320016
2004-02-03 08:40:54 51°20.804 3°1.917 7.257647 3.50727 34.296928 2.252597
2004-02-03 08:40:59 51°20.813 3°1.948 7.258479 3.507375 34.297236 2.286306
2004-02-03 08:41:04 51°20.821 3°1.98 7.258479 3.507375 34.297236 2.286306
2004-02-03 08:41:10 51°20.83 3°2.016 7.26122 3.50727 34.294416 2.320016
2004-02-03 08:41:14 51°20.835 3°2.04 7.260828 3.507059 34.290451 2.252597
2004-02-03 08:41:19 51°20.842 3°2.071 7.264449 3.507691 34.29481 2.320016
2004-02-03 08:41:24 51°20.85 3°2.103 7.261562 3.507691 34.295648 2.151469
2004-02-03 08:41:30 51°20.861 3°2.14 7.260583 3.508007 34.295734 2.218888
2004-02-03 08:41:34 51°20.868 3°2.164 7.260583 3.508007 34.295734 2.218888
2004-02-03 08:41:39 51°20.875 3°2.193 7.263324 3.508218 34.298024 2.117759
2004-02-03 08:41:44 51°20.883 3°2.223 7.267776 3.508112 34.296042 2.353725
2004-02-03 08:41:50 51°20.894 3°2.261 7.268755 3.508218 34.297187 2.353725
2004-02-03 08:41:54 51°20.902 3°2.286 7.265379 3.508429 34.300314 2.08405
2004-02-03 08:41:59 51°20.911 3°2.316 7.270418 3.508534 34.299785 2.387435
2004-02-03 08:42:04 51°20.919 3°2.345 7.270418 3.508534 34.299785 2.387435
2004-02-03 08:42:08 51°20.925 3°2.369 7.274675 3.508534 34.29811 2.185178
2004-02-03 08:42:14 51°20.935 3°2.406 7.27306 3.508534 34.295599 2.252597
2004-02-03 08:42:20 51°20.945 3°2.443 7.274235 3.508745 34.298726 2.218888
2004-02-03 08:42:24 51°20.951 3°2.467 7.273109 3.508534 34.295599 2.151469
2004-02-03 08:42:30 51°20.96 3°2.504 7.27306 3.508745 34.294541 2.185178
2004-02-03 08:42:34 51°20.967 3°2.528 7.27306 3.508745 34.294541 2.185178
2004-02-03 08:42:39 51°20.975 3°2.559 7.27443 3.508745 34.294541 2.08405
2004-02-03 08:42:44 51°20.983 3°2.589 7.273109 3.50885 34.294012 2.08405
2004-02-03 08:42:50 51°20.993 3°2.625 7.275213 3.508744 34.292031 2.151469
2004-02-03 08:42:54 51°21 3°2.648 7.27355 3.50885 34.292339 2.050341
2004-02-03 08:42:59 51°21.009 3°2.678 7.274871 3.508744 34.291194 2.218888
2004-02-03 08:43:04 51°21.017 3°2.709 7.274871 3.508744 34.291194 2.218888
2004-02-03 08:43:09 51°21.026 3°2.739 7.279274 3.508639 34.29005 2.185178
2004-02-03 08:43:14 51°21.035 3°2.769 7.28935 3.508639 34.29005 2.050341
2004-02-03 08:43:19 51°21.043 3°2.799 7.300306 3.508744 34.291194 2.218888
2004-02-03 08:43:24 51°21.051 3°2.83 7.310672 3.508744 34.290358 2.08405
2004-02-03 08:43:30 51°21.062 3°2.866 7.315806 3.508112 34.28349 2.151469
2004-02-03 08:43:34 51°21.068 3°2.89 7.315806 3.508112 34.28349 2.151469
2004-02-03 08:43:39 51°21.076 3°2.919 7.320255 3.508112 34.2768 2.117759
2004-02-03 08:43:44 51°21.085 3°2.95 7.323188 3.507796 34.264174 2.08405
2004-02-03 08:43:48 51°21.092 3°2.974 7.325486 3.507269 34.250102 2.252597
2004-02-03 08:43:54 51°21.102 3°3.009 7.327832 3.506532 34.234585 1.982922
2004-02-03 08:43:59 51°21.11 3°3.041 7.329983 3.505794 34.221577 1.814375
2004-02-03 08:44:04 51°21.118 3°3.072 7.329983 3.505794 34.221577 1.814375
2004-02-03 08:44:09 51°21.126 3°3.102 7.332329 3.505267 34.210026 2.016631
2004-02-03 08:44:14 51°21.133 3°3.133 7.336289 3.505056 34.204406 1.949212
2004-02-03 08:44:19 51°21.139 3°3.165 7.337462 3.504951 34.201597 2.117759
2004-02-03 08:44:24 51°21.146 3°3.198 7.336289 3.504846 34.198788 1.915503
2004-02-03 08:44:30 51°21.156 3°3.238 7.335849 3.504951 34.197432 1.848084
2004-02-03 08:44:34 51°21.163 3°3.263 7.335849 3.504951 34.197432 1.848084
2004-02-03 08:44:39 51°21.171 3°3.293 7.331841 3.504635 34.18984 1.848084
2004-02-03 08:44:44 51°21.177 3°3.323 7.331792 3.504319 34.183083 2.050341
2004-02-03 08:44:48 51°21.182 3°3.348 7.331743 3.504003 34.179656 2.016631
2004-02-03 08:44:54 51°21.191 3°3.387 7.328126 3.502317 34.16138 1.881794
2004-02-03 08:44:59 51°21.198 3°3.418 7.328468 3.501053 34.150168 2.016631
2004-02-03 08:45:04 51°21.206 3°3.449 7.328468 3.501053 34.150168 2.016631
2004-02-03 08:45:10 51°21.216 3°3.486 7.323188 3.500421 34.143315 2.016631
2004-02-03 08:45:14 51°21.222 3°3.51 7.322113 3.499683 34.136151 1.982922
2004-02-03 08:45:19 51°21.23 3°3.541 7.321771 3.499262 34.133245 2.050341
2004-02-03 08:45:24 51°21.237 3°3.571 7.326561 3.49884 34.130339 2.185178
2004-02-03 08:45:30 51°21.245 3°3.609 7.323677 3.498524 34.129406 1.982922
2004-02-03 08:45:34 51°21.252 3°3.635 7.323677 3.498524 34.129406 1.982922
2004-02-03 08:45:39 51°21.26 3°3.667 7.323188 3.49863 34.132211 1.814375
2004-02-03 08:45:44 51°21.268 3°3.697 7.322064 3.498419 34.129926 1.949212
2004-02-03 08:45:48 51°21.275 3°3.721 7.321966 3.497892 34.122552 2.218888
2004-02-03 08:45:54 51°21.283 3°3.758 7.327344 3.497682 34.121098 2.050341
2004-02-03 08:45:58 51°21.289 3°3.784 7.332525 3.497366 34.118502 2.050341
2004-02-03 08:46:04 51°21.298 3°3.823 7.332525 3.497366 34.118502 2.050341
2004-02-03 08:46:09 51°21.306 3°3.854 7.324459 3.496733 34.114142 2.016631
2004-02-03 08:46:14 51°21.314 3°3.884 7.326855 3.496523 34.110195 2.117759
2004-02-03 08:46:20 51°21.322 3°3.921 7.33013 3.496523 34.109364 2.117759
2004-02-03 08:46:24 51°21.329 3°3.946 7.329934 3.496207 34.103445 2.050341
2004-02-03 08:46:28 51°21.336 3°3.972 7.324508 3.495785 34.099707 2.016631
2004-02-03 08:46:34 51°21.347 3°4.01 7.324508 3.495785 34.099707 2.016631
2004-02-03 08:46:39 51°21.354 3°4.04 7.328028 3.495153 34.092854 2.117759
2004-02-03 08:46:44 51°21.362 3°4.071 7.324166 3.494837 34.087767 2.151469
2004-02-03 08:46:49 51°21.37 3°4.102 7.32573 3.494732 34.084965 2.185178
2004-02-03 08:46:54 51°21.377 3°4.134 7.325095 3.494205 34.081745 1.982922
2004-02-03 08:46:58 51°21.383 3°4.16 7.324508 3.493783 34.078007 2.050341
2004-02-03 08:47:04 51°21.392 3°4.197 7.324508 3.493783 34.078007 2.050341
2004-02-03 08:47:10 51°21.4 3°4.235 7.320011 3.493467 34.07458 2.016631
2004-02-03 08:47:14 51°21.406 3°4.259 7.320353 3.493257 34.073126 2.08405
2004-02-03 08:47:19 51°21.414 3°4.291 7.319326 3.492835 34.068558 2.117759
2004-02-03 08:47:24 51°21.422 3°4.323 7.312921 3.492519 34.066792 2.117759
2004-02-03 08:47:29 51°21.431 3°4.354 7.310134 3.492203 34.063365 2.016631
2004-02-03 08:47:34 51°21.439 3°4.385 7.310134 3.492203 34.063365 2.016631
2004-02-03 08:47:39 51°21.446 3°4.416 7.311797 3.491992 34.06357 2.08405
2004-02-03 08:47:44 51°21.453 3°4.447 7.313019 3.492309 34.070317 2.151469
2004-02-03 08:47:50 51°21.462 3°4.485 7.311161 3.490623 34.05453 2.151469
2004-02-03 08:47:54 51°21.469 3°4.51 7.302262 3.490202 34.05245 2.151469
2004-02-03 08:47:59 51°21.476 3°4.542 7.301137 3.489675 34.047568 2.218888
2004-02-03 08:48:04 51°21.483 3°4.573 7.301137 3.489675 34.047568 2.218888
2004-02-03 08:48:08 51°21.489 3°4.598 7.299621 3.489359 34.043312 2.185178
2004-02-03 08:48:14 51°21.498 3°4.636 7.300599 3.489253 34.043829 1.915503
2004-02-03 08:48:18 51°21.504 3°4.661 7.293948 3.488305 34.036036 2.185178
2004-02-03 08:48:24 51°21.512 3°4.699 7.28935 3.488305 34.038525 2.185178
2004-02-03 08:48:29 51°21.519 3°4.731 7.288519 3.487989 34.037586 2.117759
2004-02-03 08:48:34 51°21.527 3°4.764 7.288519 3.487989 34.037586 2.117759
2004-02-03 08:48:40 51°21.536 3°4.802 7.280203 3.487989 34.039246 2.117759
2004-02-03 08:48:44 51°21.542 3°4.828 7.271152 3.487252 34.032077 2.151469
2004-02-03 08:48:48 51°21.547 3°4.852 7.272473 3.487041 34.03477 2.185178
2004-02-03 08:48:54 51°21.554 3°4.889 7.270369 3.486514 34.032375 2.320016
2004-02-03 08:49:00 51°21.562 3°4.929 7.263911 3.485461 34.026755 2.218888
2004-02-03 08:49:04 51°21.567 3°4.956 7.263911 3.485461 34.026755 2.218888
2004-02-03 08:49:10 51°21.578 3°4.994 7.250453 3.484091 34.017704 2.08405
2004-02-03 08:49:14 51°21.583 3°5.02 7.245853 3.483249 34.010219 2.252597
2004-02-03 08:49:19 51°21.591 3°5.05 7.246685 3.48209 34.000134 2.151469
2004-02-03 08:49:24 51°21.596 3°5.081 7.250894 3.480931 33.991706 2.387435
2004-02-03 08:49:30 51°21.605 3°5.12 7.245216 3.479245 33.984195 2.320016
2004-02-03 08:49:34 51°21.61 3°5.147 7.245216 3.479245 33.984195 2.320016
2004-02-03 08:49:39 51°21.618 3°5.179 7.237238 3.478403 33.978364 2.320016
2004-02-03 08:49:44 51°21.624 3°5.211 7.23244 3.477665 33.976165 2.353725
2004-02-03 08:49:49 51°21.631 3°5.242 7.231118 3.477771 33.976479 2.286306
2004-02-03 08:49:54 51°21.636 3°5.274 7.234154 3.477455 33.975536 2.454853
2004-02-03 08:49:59 51°21.642 3°5.306 7.231412 3.477139 33.977082 2.421144
2004-02-03 08:50:04 51°21.649 3°5.338 7.231412 3.477139 33.977082 2.421144
2004-02-03 08:50:09 51°21.656 3°5.369 7.223236 3.477033 33.979257 2.387435
2004-02-03 08:50:14 51°21.662 3°5.4 7.223774 3.476612 33.976341 2.353725
2004-02-03 08:50:20 51°21.671 3°5.438 7.22397 3.476507 33.977686 2.421144
2004-02-03 08:50:24 51°21.676 3°5.464 7.225978 3.475664 33.971023 2.454853
2004-02-03 08:50:30 51°21.684 3°5.502 7.228426 3.474294 33.960297 2.488563
2004-02-03 08:50:34 51°21.689 3°5.527 7.228426 3.474294 33.960297 2.488563
2004-02-03 08:50:39 51°21.695 3°5.558 7.228083 3.473662 33.95592 2.387435
2004-02-03 08:50:44 51°21.701 3°5.589 7.232881 3.473135 33.951029 2.522272
2004-02-03 08:50:49 51°21.707 3°5.622 7.229699 3.472609 33.945307 2.454853
2004-02-03 08:50:54 51°21.714 3°5.655 7.231755 3.472398 33.940531 2.387435
2004-02-03 08:50:59 51°21.721 3°5.686 7.235231 3.472187 33.938243 2.6234
2004-02-03 08:51:04 51°21.727 3°5.717 7.235231 3.472187 33.938243 2.6234
2004-02-03 08:51:10 51°21.734 3°5.754 7.238853 3.471766 33.932838 2.454853
2004-02-03 08:51:14 51°21.739 3°5.78 7.239147 3.471344 33.925775 2.488563
2004-02-03 08:51:19 51°21.746 3°5.813 7.240762 3.470502 33.916623 2.387435
2004-02-03 08:51:24 51°21.753 3°5.847 7.23993 3.470186 33.911535 2.387435
2004-02-03 08:51:30 51°21.762 3°5.885 7.240909 3.47008 33.907906 2.387435
2004-02-03 08:51:34 51°21.767 3°5.909 7.240909 3.47008 33.907906 2.387435
2004-02-03 08:51:39 51°21.772 3°5.94 7.247272 3.47008 33.904594 2.488563
2004-02-03 08:51:44 51°21.778 3°5.973 7.246929 3.469975 33.903451 2.488563
2004-02-03 08:51:50 51°21.785 3°6.013 7.244335 3.469975 33.905935 2.488563
2004-02-03 08:51:54 51°21.79 3°6.039 7.24272 3.469764 33.901163 2.454853
2004-02-03 08:51:59 51°21.797 3°6.071 7.245853 3.469343 33.89245 2.522272
2004-02-03 08:52:04 51°21.803 3°6.102 7.245853 3.469343 33.89245 2.522272
2004-02-03 08:52:09 51°21.81 3°6.134 7.240958 3.469764 33.895369 2.488563
2004-02-03 08:52:14 51°21.817 3°6.166 7.242867 3.469869 33.89734 2.589691
2004-02-03 08:52:19 51°21.824 3°6.198 7.241398 3.470185 33.900771 2.522272
2004-02-03 08:52:24 51°21.831 3°6.231 7.242426 3.470607 33.906172 2.555982
2004-02-03 08:52:29 51°21.837 3°6.263 7.24316 3.471134 33.913546 2.522272
2004-02-03 08:52:34 51°21.843 3°6.295 7.24316 3.471134 33.913546 2.522272
2004-02-03 08:52:40 51°21.85 3°6.333 7.248496 3.47145 33.916977 2.421144
2004-02-03 08:52:44 51°21.855 3°6.36 7.246538 3.471976 33.922695 2.555982
2004-02-03 08:52:49 51°21.86 3°6.392 7.240566 3.472503 33.928414 2.522272
2004-02-03 08:52:54 51°21.865 3°6.424 7.244776 3.472925 33.933817 2.522272
2004-02-03 08:52:59 51°21.871 3°6.457 7.242377 3.473346 33.935906 2.488563
2004-02-03 08:53:04 51°21.877 3°6.489 7.242377 3.473346 33.935906 2.488563
2004-02-03 08:53:10 51°21.884 3°6.528 7.243014 3.473873 33.941625 2.522272
2004-02-03 08:53:14 51°21.889 3°6.554 7.242965 3.47461 33.95046 2.454853
2004-02-03 08:53:20 51°21.897 3°6.593 7.243307 3.475032 33.955035 2.421144
2004-02-03 08:53:24 51°21.902 3°6.618 7.24644 3.475348 33.957637 2.488563
2004-02-03 08:53:30 51°21.909 3°6.656 7.242867 3.476085 33.965644 2.522272
2004-02-03 08:53:34 51°21.914 3°6.682 7.242867 3.476085 33.965644 2.522272
2004-02-03 08:53:39 51°21.921 3°6.715 7.244923 3.47619 33.967617 2.488563
2004-02-03 08:53:44 51°21.928 3°6.747 7.245069 3.476928 33.974795 2.589691
2004-02-03 08:53:50 51°21.936 3°6.786 7.24644 3.477349 33.9802 2.555982
2004-02-03 08:53:54 51°21.941 3°6.812 7.247223 3.478192 33.988522 2.555982
2004-02-03 08:53:58 51°21.945 3°6.837 7.249328 3.478614 33.993097 2.488563
2004-02-03 08:54:04 51°21.954 3°6.876 7.249328 3.478614 33.993097 2.488563
2004-02-03 08:54:10 51°21.962 3°6.915 7.253341 3.479246 33.999961 2.690819
2004-02-03 08:54:14 51°21.967 3°6.941 7.250845 3.479456 34.00308 2.488563
2004-02-03 08:54:19 51°21.973 3°6.973 7.253439 3.479983 34.006309 2.555982
2004-02-03 08:54:24 51°21.98 3°7.005 7.253047 3.480299 34.00891 2.488563
2004-02-03 08:54:30 51°21.988 3°7.045 7.251824 3.480194 34.006936 2.488563
2004-02-03 08:54:34 51°21.993 3°7.072 7.251824 3.480194 34.006936 2.488563
2004-02-03 08:54:39 51°21.999 3°7.105 7.250306 3.48051 34.008707 2.690819
2004-02-03 08:54:44 51°22.003 3°7.139 7.254907 3.480826 34.009648 2.65711
2004-02-03 08:54:49 51°22.007 3°7.172 7.250306 3.48051 34.006216 2.522272
2004-02-03 08:54:54 51°22.009 3°7.206 7.252656 3.480404 34.005903 2.488563
2004-02-03 08:54:59 51°22.013 3°7.24 7.248496 3.480194 34.003615 2.522272
2004-02-03 08:55:04 51°22.017 3°7.275 7.248496 3.480194 34.003615 2.522272
2004-02-03 08:55:10 51°22.022 3°7.315 7.247419 3.480088 34.000811 2.522272
2004-02-03 08:55:14 51°22.024 3°7.341 7.246391 3.479667 33.994576 2.522272
2004-02-03 08:55:19 51°22.027 3°7.375 7.250111 3.479562 33.995092 2.522272
2004-02-03 08:55:24 51°22.03 3°7.409 7.243846 3.47914 33.991347 2.555982
2004-02-03 08:55:30 51°22.034 3°7.451 7.244335 3.479035 33.992693 2.555982
2004-02-03 08:55:34 51°22.036 3°7.478 7.244335 3.479035 33.992693 2.555982
2004-02-03 08:55:39 51°22.038 3°7.512 7.245118 3.47914 33.994667 2.589691
2004-02-03 08:55:44 51°22.041 3°7.544 7.242182 3.478719 33.990921 2.65711
2004-02-03 08:55:50 51°22.044 3°7.584 7.240321 3.478192 33.986032 2.488563
2004-02-03 08:55:54 51°22.047 3°7.612 7.238412 3.477665 33.981972 2.454853
2004-02-03 08:55:59 51°22.05 3°7.647 7.231999 3.477876 33.98592 2.522272
2004-02-03 08:56:04 51°22.053 3°7.682 7.231999 3.477876 33.98592 2.522272
2004-02-03 08:56:09 51°22.056 3°7.715 7.229992 3.477665 33.983632 2.488563
2004-02-03 08:56:14 51°22.059 3°7.749 7.23386 3.477665 33.984462 2.555982
2004-02-03 08:56:19 51°22.064 3°7.783 7.23337 3.476928 33.978113 2.522272
2004-02-03 08:56:24 51°22.068 3°7.817 7.228915 3.476717 33.979975 2.421144
2004-02-03 08:56:30 51°22.074 3°7.856 7.22681 3.476612 33.98049 2.555982
2004-02-03 08:56:34 51°22.078 3°7.882 7.22681 3.476612 33.98049 2.555982
2004-02-03 08:56:39 51°22.083 3°7.915 7.225782 3.475875 33.976631 2.555982
2004-02-03 08:56:44 51°22.089 3°7.948 7.226418 3.476296 33.980378 2.65711
2004-02-03 08:56:50 51°22.096 3°7.989 7.22211 3.476085 33.978919 2.893076
2004-02-03 08:56:54 51°22.1 3°8.016 7.222844 3.475664 33.976832 2.690819
2004-02-03 08:56:59 51°22.104 3°8.049 7.224949 3.475559 33.976518 2.690819
2004-02-03 08:57:04 51°22.108 3°8.083 7.224949 3.475559 33.976518 2.690819
2004-02-03 08:57:08 51°22.112 3°8.11 7.224019 3.475243 33.973915 2.65711
2004-02-03 08:57:14 51°22.117 3°8.149 7.222354 3.474926 33.972142 2.555982
2004-02-03 08:57:19 51°22.122 3°8.182 7.223236 3.474716 33.969853 2.6234
2004-02-03 08:57:24 51°22.128 3°8.215 7.222208 3.474821 33.969338 2.555982
2004-02-03 08:57:30 51°22.134 3°8.254 7.217115 3.475137 33.975261 2.758238
2004-02-03 08:57:34 51°22.139 3°8.28 7.217115 3.475137 33.975261 2.758238
2004-02-03 08:57:39 51°22.144 3°8.314 7.219466 3.474294 33.966105 2.724529
2004-02-03 08:57:44 51°22.15 3°8.348 7.219514 3.474189 33.964961 2.758238
2004-02-03 08:57:50 51°22.157 3°8.387 7.222942 3.474084 33.963817 2.724529
2004-02-03 08:57:55 51°22.16 3°8.42 7.227104 3.473978 33.965162 2.724529
2004-02-03 08:57:59 51°22.164 3°8.446 7.229062 3.473452 33.961099 2.859366
2004-02-03 08:58:04 51°22.169 3°8.48 7.229062 3.473452 33.961099 2.859366
2004-02-03 08:58:08 51°22.173 3°8.507 7.22446 3.47282 33.954232 3.061623
2004-02-03 08:58:14 51°22.18 3°8.547 7.224852 3.473241 33.957151 2.791947
2004-02-03 08:58:20 51°22.185 3°8.587 7.231804 3.473346 33.956636 2.825657
2004-02-03 08:58:24 51°22.189 3°8.614 7.230041 3.472398 33.943848 2.994204
2004-02-03 08:58:30 51°22.195 3°8.655 7.22681 3.473136 33.951858 2.893076
2004-02-03 08:58:34 51°22.199 3°8.682 7.22681 3.473136 33.951858 2.893076
2004-02-03 08:58:40 51°22.205 3°8.722 7.226271 3.472925 33.94957 2.6234
2004-02-03 08:58:44 51°22.209 3°8.749 7.224215 3.472925 33.947911 2.926785
2004-02-03 08:58:50 51°22.216 3°8.789 7.222208 3.472819 33.945108 2.690819
2004-02-03 08:58:54 51°22.219 3°8.816 7.220983 3.472398 33.94219 2.859366
2004-02-03 08:58:59 51°22.224 3°8.849 7.221816 3.472819 33.947596 2.65711
2004-02-03 08:59:04 51°22.228 3°8.883 7.221816 3.472819 33.947596 2.65711
2004-02-03 08:59:10 51°22.235 3°8.924 7.218339 3.472819 33.947596 2.589691
2004-02-03 08:59:14 51°22.238 3°8.95 7.217115 3.472714 33.94894 2.65711
2004-02-03 08:59:19 51°22.243 3°8.984 7.213393 3.472503 33.94831 2.791947
2004-02-03 08:59:24 51°22.248 3°9.017 7.209476 3.472293 33.946851 2.758238
2004-02-03 08:59:29 51°22.253 3°9.051 7.202668 3.472293 33.946851 2.724529
2004-02-03 08:59:34 51°22.258 3°9.085 7.202668 3.472293 33.946851 2.724529
2004-02-03 08:59:39 51°22.264 3°9.119 7.19875 3.471977 33.944247 2.690819
2004-02-03 08:59:44 51°22.268 3°9.153 7.192823 3.471871 33.945591 2.926785
2004-02-03 08:59:50 51°22.273 3°9.193 7.197182 3.470291 33.931742 2.724529
2004-02-03 08:59:54 51°22.277 3°9.219 7.18376 3.470923 33.941927 2.825657
2004-02-03 08:59:59 51°22.281 3°9.253 7.181212 3.470291 33.942526 2.791947
2004-02-03 09:00:04 51°22.286 3°9.287 7.181212 3.470291 33.942526 2.791947
2004-02-03 09:00:10 51°22.29 3°9.327 7.185033 3.470291 33.945016 2.926785
2004-02-03 09:00:14 51°22.294 3°9.354 7.176851 3.469659 33.944787 3.129042
2004-02-03 09:00:20 51°22.299 3°9.395 7.177586 3.469133 33.939061 2.994204
2004-02-03 09:00:24 51°22.302 3°9.422 7.175087 3.468922 33.940091 3.061623
2004-02-03 09:00:30 51°22.307 3°9.462 7.176655 3.467868 33.932789 3.027913
2004-02-03 09:00:34 51°22.31 3°9.489 7.176655 3.467868 33.932789 3.027913
2004-02-03 09:00:39 51°22.315 3°9.524 7.171657 3.467131 33.926431 2.859366
2004-02-03 09:00:44 51°22.319 3°9.558 7.169501 3.46671 33.92517 3.095332
2004-02-03 09:00:50 51°22.324 3°9.598 7.168276 3.466078 33.919957 3.129042
2004-02-03 09:00:54 51°22.327 3°9.625 7.170236 3.466078 33.919957 2.926785
2004-02-03 09:00:59 51°22.331 3°9.66 7.166022 3.465656 33.919525 2.926785
2004-02-03 09:01:04 51°22.336 3°9.695 7.166022 3.465656 33.919525 2.926785
2004-02-03 09:01:10 51°22.341 3°9.735 7.153573 3.46534 33.917748 3.027913
2004-02-03 09:01:14 51°22.344 3°9.762 7.146906 3.465235 33.918263 3.027913
2004-02-03 09:01:19 51°22.349 3°9.795 7.140435 3.465235 33.916603 2.926785
2004-02-03 09:01:24 51°22.352 3°9.83 7.127687 3.465024 33.916802 3.027913
2004-02-03 09:01:30 51°22.359 3°9.872 7.117291 3.464497 33.916884 2.960494
2004-02-03 09:01:34 51°22.362 3°9.899 7.117291 3.464497 33.916884 2.960494
2004-02-03 09:01:39 51°22.367 3°9.933 7.111503 3.463971 33.917797 3.162751
2004-02-03 09:01:44 51°22.371 3°9.966 7.10233 3.463549 33.919857 3.466136
2004-02-03 09:01:49 51°22.376 3°10 7.089182 3.462601 33.918678 3.162751
2004-02-03 09:01:54 51°22.38 3°10.034 7.073087 3.46218 33.924064 3.499845
2004-02-03 09:01:59 51°22.383 3°10.07 7.062485 3.461337 33.923202 3.027913
2004-02-03 09:02:04 51°22.389 3°10.105 7.062485 3.461337 33.923202 3.027913
2004-02-03 09:02:08 51°22.392 3°10.132 7.041276 3.460495 33.92234 3.129042
2004-02-03 09:02:14 51°22.397 3°10.172 7.033959 3.459863 33.923774 3.263879
2004-02-03 09:02:19 51°22.402 3°10.205 7.022467 3.458809 33.927275 3.466136
2004-02-03 09:02:24 51°22.405 3°10.24 7.018538 3.457545 33.926818 3.331298
2004-02-03 09:02:30 51°22.411 3°10.282 7.011169 3.456914 33.934088 3.432426
2004-02-03 09:02:34 51°22.415 3°10.309 7.011169 3.456914 33.934088 3.432426
2004-02-03 09:02:39 51°22.418 3°10.343 7.001245 3.455228 33.926537 3.702101
2004-02-03 09:02:44 51°22.423 3°10.377 7.008369 3.454069 33.923064 3.263879
2004-02-03 09:02:50 51°22.427 3°10.418 6.996135 3.453121 33.922723 3.600973
2004-02-03 09:02:54 51°22.43 3°10.445 6.988813 3.452279 33.921864 3.499845
2004-02-03 09:02:59 51°22.433 3°10.479 6.993187 3.451541 33.920487 3.533554
2004-02-03 09:03:04 51°22.437 3°10.513 6.993187 3.451541 33.920487 3.533554
2004-02-03 09:03:10 51°22.441 3°10.555 6.980753 3.451225 33.919539 3.297589
2004-02-03 09:03:14 51°22.443 3°10.582 6.975887 3.450593 33.918477 3.533554
2004-02-03 09:03:19 51°22.446 3°10.617 6.976182 3.450383 33.921183 3.432426
2004-02-03 09:03:24 51°22.449 3°10.65 6.969153 3.450067 33.920235 3.398717
2004-02-03 09:03:28 51°22.452 3°10.677 6.968366 3.44954 33.91949 3.499845
2004-02-03 09:03:34 51°22.455 3°10.719 6.968366 3.44954 33.91949 3.499845
2004-02-03 09:03:39 51°22.458 3°10.754 6.95696 3.448908 33.920099 3.533554
2004-02-03 09:03:44 51°22.46 3°10.788 6.955977 3.448276 33.917367 3.365007
2004-02-03 09:03:50 51°22.463 3°10.83 6.954158 3.448276 33.920708 3.499845
2004-02-03 09:03:54 51°22.465 3°10.858 6.95047 3.44796 33.920595 3.432426
2004-02-03 09:03:59 51°22.468 3°10.892 6.953027 3.447749 33.925811 3.533554
2004-02-03 09:04:04 51°22.47 3°10.927 6.953027 3.447749 33.925811 3.533554
2004-02-03 09:04:10 51°22.473 3°10.969 6.9487 3.447117 33.921408 3.331298
2004-02-03 09:04:14 51°22.475 3°10.998 6.943487 3.446801 33.921296 3.533554